Wetterdaten: Mittwoch, 26.11.2014
Datum Zeit Temp. Aussen +5cm Feuchte Auss Luftdruck Regen Sonnenschein Regendauer Solar Windben
26.11.2014 00:00 2,7 C 1,1 C 93 % 1019,7 hPa 0,0 l/m 0 min 0 min 0 W/m 6,3 km/h (2 Bft)
26.11.2014 00:02 2,7 C 1,1 C 93 % 1019,6 hPa 0,0 l/m 0 min 0 min 0 W/m 12,6 km/h (3 Bft)
26.11.2014 00:05 2,7 C 1,1 C 93 % 1019,6 hPa 0,0 l/m 0 min 0 min 0 W/m 10,5 km/h (2 Bft)
26.11.2014 00:06 2,7 C 1,1 C 93 % 1019,6 hPa 0,0 l/m 0 min 0 min 0 W/m 10,5 km/h (2 Bft)
26.11.2014 00:08 2,7 C 1,1 C 93 % 1019,6 hPa 0,0 l/m 0 min 0 min 0 W/m 6,3 km/h (2 Bft)
26.11.2014 00:10 2,7 C 1,1 C 93 % 1019,6 hPa 0,0 l/m 0 min 0 min 0 W/m 4,2 km/h (1 Bft)
26.11.2014 00:12 2,6 C 1,1 C 93 % 1019,5 hPa 0,0 l/m 0 min 0 min 0 W/m 6,3 km/h (2 Bft)
26.11.2014 00:14 2,6 C 0,6 C 93 % 1019,6 hPa 0,0 l/m 0 min 0 min 0 W/m 4,2 km/h (1 Bft)
26.11.2014 00:16 2,6 C 0,6 C 93 % 1019,6 hPa 0,0 l/m 0 min 0 min 0 W/m 4,2 km/h (1 Bft)
26.11.2014 00:18 2,6 C 0,6 C 93 % 1019,6 hPa 0,0 l/m 0 min 0 min 0 W/m 6,3 km/h (2 Bft)
26.11.2014 00:20 2,5 C 0,6 C 93 % 1019,5 hPa 0,0 l/m 0 min 0 min 0 W/m 4,2 km/h (1 Bft)
26.11.2014 00:22 2,5 C 0,6 C 93 % 1019,5 hPa 0,0 l/m 0 min 0 min 0 W/m 6,3 km/h (2 Bft)
26.11.2014 00:24 2,5 C 0,6 C 93 % 1019,6 hPa 0,0 l/m 0 min 0 min 0 W/m 6,3 km/h (2 Bft)
26.11.2014 00:26 2,4 C 0,6 C 93 % 1019,5 hPa 0,0 l/m 0 min 0 min 0 W/m 6,3 km/h (2 Bft)
26.11.2014 00:28 2,4 C 0,6 C 93 % 1019,5 hPa 0,0 l/m 0 min 0 min 0 W/m 6,3 km/h (2 Bft)
26.11.2014 00:30 2,4 C 0,6 C 93 % 1019,5 hPa 0,0 l/m 0 min 0 min 0 W/m 10,5 km/h (2 Bft)
26.11.2014 00:32 2,3 C 0,6 C 93 % 1019,5 hPa 0,0 l/m 0 min 0 min 0 W/m 6,3 km/h (2 Bft)
26.11.2014 00:34 2,3 C 0,6 C 93 % 1019,5 hPa 0,0 l/m 0 min 0 min 0 W/m 6,3 km/h (2 Bft)
26.11.2014 00:36 2,3 C 0,6 C 93 % 1019,4 hPa 0,0 l/m 0 min 0 min 0 W/m 6,3 km/h (2 Bft)
26.11.2014 00:38 2,2 C 0,6 C 93 % 1019,4 hPa 0,0 l/m 0 min 0 min 0 W/m 10,5 km/h (2 Bft)
26.11.2014 00:40 2,2 C 0,6 C 93 % 1019,4 hPa 0,0 l/m 0 min 0 min 0 W/m 6,3 km/h (2 Bft)
26.11.2014 00:42 2,2 C 0,6 C 93 % 1019,4 hPa 0,0 l/m 0 min 0 min 0 W/m 6,3 km/h (2 Bft)
26.11.2014 00:44 2,2 C 0,6 C 93 % 1019,4 hPa 0,0 l/m 0 min 0 min 0 W/m 6,3 km/h (2 Bft)
26.11.2014 00:46 2,1 C 0,6 C 93 % 1019,4 hPa 0,0 l/m 0 min 0 min 0 W/m 10,5 km/h (2 Bft)
26.11.2014 00:48 2,1 C 0,6 C 93 % 1019,3 hPa 0,0 l/m 0 min 0 min 0 W/m 6,3 km/h (2 Bft)
26.11.2014 00:50 2,1 C 0,6 C 93 % 1019,3 hPa 0,0 l/m 0 min 0 min 0 W/m 6,3 km/h (2 Bft)
26.11.2014 00:52 2,1 C 0,6 C 93 % 1019,2 hPa 0,0 l/m 0 min 0 min 0 W/m 6,3 km/h (2 Bft)
26.11.2014 00:54 2,0 C 0,6 C 93 % 1019,2 hPa 0,0 l/m 0 min 0 min 0 W/m 6,3 km/h (2 Bft)
26.11.2014 00:56 2,0 C 0,6 C 93 % 1019,2 hPa 0,0 l/m 0 min 0 min 0 W/m 6,3 km/h (2 Bft)
26.11.2014 00:58 2,0 C 0,6 C 93 % 1019,2 hPa 0,0 l/m 0 min 0 min 0 W/m 6,3 km/h (2 Bft)
26.11.2014 01:00 1,9 C 0,6 C 93 % 1019,2 hPa 0,0 l/m 0 min 0 min 0 W/m 10,5 km/h (2 Bft)
26.11.2014 01:02 1,9 C 0,6 C 93 % 1019,1 hPa 0,0 l/m 0 min 0 min 0 W/m 10,5 km/h (2 Bft)
26.11.2014 01:04 1,9 C 0,6 C 93 % 1019,1 hPa 0,0 l/m 0 min 0 min 0 W/m 10,5 km/h (2 Bft)
26.11.2014 01:06 1,9 C 0,6 C 93 % 1019,1 hPa 0,0 l/m 0 min 0 min 0 W/m 10,5 km/h (2 Bft)
26.11.2014 01:08 1,9 C 0,6 C 93 % 1019,1 hPa 0,0 l/m 0 min 0 min 0 W/m 10,5 km/h (2 Bft)
26.11.2014 01:10 1,9 C 1,1 C 93 % 1019,1 hPa 0,0 l/m 0 min 0 min 0 W/m 10,5 km/h (2 Bft)
26.11.2014 01:12 1,9 C 1,1 C 93 % 1019,0 hPa 0,0 l/m 0 min 0 min 0 W/m 10,5 km/h (2 Bft)
26.11.2014 01:14 1,9 C 1,1 C 93 % 1019,0 hPa 0,0 l/m 0 min 0 min 0 W/m 12,6 km/h (3 Bft)
26.11.2014 01:16 1,9 C 1,1 C 93 % 1019,0 hPa 0,0 l/m 0 min 0 min 0 W/m 10,5 km/h (2 Bft)
26.11.2014 01:18 1,9 C 1,1 C 93 % 1018,9 hPa 0,0 l/m 0 min 0 min 0 W/m 12,6 km/h (3 Bft)
26.11.2014 01:20 1,9 C 1,1 C 93 % 1018,9 hPa 0,0 l/m 0 min 0 min 0 W/m 10,5 km/h (2 Bft)
26.11.2014 01:22 2,0 C 1,7 C 93 % 1018,9 hPa 0,0 l/m 0 min 0 min 0 W/m 12,6 km/h (3 Bft)
26.11.2014 01:24 2,1 C 1,7 C 93 % 1018,9 hPa 0,0 l/m 0 min 0 min 0 W/m 14,6 km/h (3 Bft)
26.11.2014 01:26 2,2 C 1,7 C 93 % 1018,9 hPa 0,0 l/m 0 min 0 min 0 W/m 12,6 km/h (3 Bft)
26.11.2014 01:28 2,2 C 2,2 C 94 % 1018,9 hPa 0,0 l/m 0 min 0 min 0 W/m 16,7 km/h (3 Bft)
26.11.2014 01:30 2,3 C 2,2 C 94 % 1018,8 hPa 0,0 l/m 0 min 0 min 0 W/m 20,9 km/h (4 Bft)
26.11.2014 01:32 2,4 C 2,2 C 94 % 1018,8 hPa 0,0 l/m 0 min 0 min 0 W/m 16,7 km/h (3 Bft)
26.11.2014 01:34 2,6 C 2,2 C 94 % 1018,8 hPa 0,0 l/m 0 min 0 min 0 W/m 16,7 km/h (3 Bft)
26.11.2014 01:36 2,6 C 2,8 C 94 % 1018,7 hPa 0,0 l/m 0 min 0 min 0 W/m 18,8 km/h (3 Bft)
26.11.2014 01:38 2,7 C 2,8 C 94 % 1018,6 hPa 0,0 l/m 0 min 0 min 0 W/m 18,8 km/h (3 Bft)
26.11.2014 01:40 2,8 C 2,8 C 95 % 1018,6 hPa 0,0 l/m 0 min 0 min 0 W/m 27,2 km/h (4 Bft)
26.11.2014 01:42 2,9 C 2,8 C 95 % 1018,6 hPa 0,0 l/m 0 min 0 min 0 W/m 29,3 km/h (5 Bft)
26.11.2014 01:44 3,1 C 3,3 C 95 % 1018,6 hPa 0,0 l/m 0 min 0 min 0 W/m 27,2 km/h (4 Bft)
26.11.2014 01:46 3,3 C 3,3 C 95 % 1018,6 hPa 0,0 l/m 0 min 0 min 0 W/m 20,9 km/h (4 Bft)
26.11.2014 01:48 3,4 C 3,3 C 95 % 1018,6 hPa 0,0 l/m 0 min 0 min 0 W/m 18,8 km/h (3 Bft)
26.11.2014 01:50 3,4 C 3,3 C 95 % 1018,6 hPa 0,0 l/m 0 min 0 min 0 W/m 16,7 km/h (3 Bft)
26.11.2014 01:52 3,6 C 3,3 C 95 % 1018,6 hPa 0,0 l/m 0 min 0 min 0 W/m 18,8 km/h (3 Bft)
26.11.2014 01:54 3,6 C 3,3 C 95 % 1018,6 hPa 0,0 l/m 0 min 0 min 0 W/m 16,7 km/h (3 Bft)
26.11.2014 01:56 3,7 C 3,3 C 95 % 1018,5 hPa 0,0 l/m 0 min 0 min 0 W/m 14,6 km/h (3 Bft)
26.11.2014 01:58 3,7 C 3,3 C 95 % 1018,5 hPa 0,0 l/m 0 min 0 min 0 W/m 18,8 km/h (3 Bft)
26.11.2014 02:00 3,8 C 3,3 C 95 % 1018,5 hPa 0,0 l/m 0 min 0 min 0 W/m 18,8 km/h (3 Bft)
26.11.2014 02:02 3,9 C 3,3 C 95 % 1018,5 hPa 0,0 l/m 0 min 0 min 0 W/m 23,0 km/h (4 Bft)
26.11.2014 02:04 3,9 C 3,3 C 95 % 1018,5 hPa 0,0 l/m 0 min 0 min 0 W/m 20,9 km/h (4 Bft)
26.11.2014 02:06 4,0 C 3,3 C 95 % 1018,4 hPa 0,0 l/m 0 min 0 min 0 W/m 27,2 km/h (4 Bft)
26.11.2014 02:08 4,1 C 3,3 C 95 % 1018,4 hPa 0,0 l/m 0 min 0 min 0 W/m 16,7 km/h (3 Bft)
26.11.2014 02:10 4,1 C 3,3 C 94 % 1018,5 hPa 0,0 l/m 0 min 0 min 0 W/m 14,6 km/h (3 Bft)
26.11.2014 02:12 4,2 C 3,3 C 94 % 1018,5 hPa 0,0 l/m 0 min 0 min 0 W/m 18,8 km/h (3 Bft)
26.11.2014 02:14 4,2 C 3,3 C 95 % 1018,5 hPa 0,0 l/m 0 min 0 min 0 W/m 20,9 km/h (4 Bft)
26.11.2014 02:16 4,2 C 3,3 C 94 % 1018,5 hPa 0,0 l/m 0 min 0 min 0 W/m 18,8 km/h (3 Bft)
26.11.2014 02:18 4,3 C 3,3 C 94 % 1018,5 hPa 0,0 l/m 0 min 0 min 0 W/m 18,8 km/h (3 Bft)
26.11.2014 02:20 4,3 C 3,3 C 94 % 1018,5 hPa 0,0 l/m 0 min 0 min 0 W/m 20,9 km/h (4 Bft)
26.11.2014 02:22 4,4 C 3,9 C 94 % 1018,5 hPa 0,0 l/m 0 min 0 min 0 W/m 18,8 km/h (3 Bft)
26.11.2014 02:24 4,4 C 3,9 C 94 % 1018,5 hPa 0,0 l/m 0 min 0 min 0 W/m 18,8 km/h (3 Bft)
26.11.2014 02:26 4,4 C 3,9 C 94 % 1018,4 hPa 0,0 l/m 0 min 0 min 0 W/m 27,2 km/h (4 Bft)
26.11.2014 02:28 4,5 C 3,9 C 93 % 1018,4 hPa 0,0 l/m 0 min 0 min 0 W/m 20,9 km/h (4 Bft)
26.11.2014 02:30 4,6 C 3,9 C 93 % 1018,4 hPa 0,0 l/m 0 min 0 min 0 W/m 14,6 km/h (3 Bft)
26.11.2014 02:32 4,6 C 3,9 C 93 % 1018,4 hPa 0,0 l/m 0 min 0 min 0 W/m 23,0 km/h (4 Bft)
26.11.2014 02:34 4,6 C 3,9 C 93 % 1018,3 hPa 0,0 l/m 0 min 0 min 0 W/m 14,6 km/h (3 Bft)
26.11.2014 02:36 4,7 C 3,9 C 93 % 1018,3 hPa 0,0 l/m 0 min 0 min 0 W/m 27,2 km/h (4 Bft)
26.11.2014 02:38 4,7 C 3,9 C 93 % 1018,2 hPa 0,0 l/m 0 min 0 min 0 W/m 18,8 km/h (3 Bft)
26.11.2014 02:40 4,7 C 3,9 C 92 % 1018,2 hPa 0,0 l/m 0 min 0 min 0 W/m 18,8 km/h (3 Bft)
26.11.2014 02:42 4,8 C 3,9 C 92 % 1018,1 hPa 0,0 l/m 0 min 0 min 0 W/m 18,8 km/h (3 Bft)
26.11.2014 02:44 4,8 C 3,9 C 92 % 1018,1 hPa 0,0 l/m 0 min 0 min 0 W/m 18,8 km/h (3 Bft)
26.11.2014 02:46 4,8 C 3,9 C 92 % 1018,1 hPa 0,0 l/m 0 min 0 min 0 W/m 23,0 km/h (4 Bft)
26.11.2014 02:48 4,9 C 3,9 C 92 % 1018,1 hPa 0,0 l/m 0 min 0 min 0 W/m 27,2 km/h (4 Bft)
26.11.2014 02:50 4,9 C 3,9 C 92 % 1018,0 hPa 0,0 l/m 0 min 0 min 0 W/m 27,2 km/h (4 Bft)
26.11.2014 02:52 4,9 C 3,9 C 91 % 1018,0 hPa 0,0 l/m 0 min 0 min 0 W/m 18,8 km/h (3 Bft)
26.11.2014 02:54 5,0 C 3,9 C 91 % 1018,0 hPa 0,0 l/m 0 min 0 min 0 W/m 18,8 km/h (3 Bft)
26.11.2014 02:56 5,0 C 3,9 C 91 % 1018,0 hPa 0,0 l/m 0 min 0 min 0 W/m 23,0 km/h (4 Bft)
26.11.2014 02:58 5,1 C 3,9 C 91 % 1018,0 hPa 0,0 l/m 0 min 0 min 0 W/m 23,0 km/h (4 Bft)
26.11.2014 03:00 5,1 C 3,9 C 91 % 1017,9 hPa 0,0 l/m 0 min 0 min 0 W/m 23,0 km/h (4 Bft)
26.11.2014 03:02 5,1 C 3,9 C 90 % 1017,9 hPa 0,0 l/m 0 min 0 min 0 W/m 20,9 km/h (4 Bft)
26.11.2014 03:04 5,1 C 3,9 C 90 % 1017,9 hPa 0,0 l/m 0 min 0 min 0 W/m 18,8 km/h (3 Bft)
26.11.2014 03:06 5,1 C 3,9 C 90 % 1017,9 hPa 0,0 l/m 0 min 0 min 0 W/m 16,7 km/h (3 Bft)
26.11.2014 03:08 5,2 C 3,9 C 90 % 1017,7 hPa 0,0 l/m 0 min 0 min 0 W/m 20,9 km/h (4 Bft)
26.11.2014 03:10 5,2 C 3,9 C 90 % 1017,8 hPa 0,0 l/m 0 min 0 min 0 W/m 20,9 km/h (4 Bft)
26.11.2014 03:12 5,2 C 3,9 C 90 % 1017,7 hPa 0,0 l/m 0 min 0 min 0 W/m 27,2 km/h (4 Bft)
26.11.2014 03:14 5,2 C 3,9 C 89 % 1017,7 hPa 0,0 l/m 0 min 0 min 0 W/m 23,0 km/h (4 Bft)
26.11.2014 03:16 5,2 C 3,9 C 89 % 1017,6 hPa 0,0 l/m 0 min 0 min 0 W/m 27,2 km/h (4 Bft)
26.11.2014 03:18 5,3 C 4,4 C 89 % 1017,6 hPa 0,0 l/m 0 min 0 min 0 W/m 31,4 km/h (5 Bft)
26.11.2014 03:20 5,3 C 4,4 C 89 % 1017,6 hPa 0,0 l/m 0 min 0 min 0 W/m 33,5 km/h (5 Bft)
26.11.2014 03:22 5,3 C 4,4 C 89 % 1017,6 hPa 0,0 l/m 0 min 0 min 0 W/m 39,7 km/h (6 Bft)
26.11.2014 03:24 5,3 C 4,4 C 89 % 1017,6 hPa 0,0 l/m 0 min 0 min 0 W/m 29,3 km/h (5 Bft)
26.11.2014 03:26 5,3 C 4,4 C 88 % 1017,6 hPa 0,0 l/m 0 min 0 min 0 W/m 20,9 km/h (4 Bft)
26.11.2014 03:28 5,4 C 4,4 C 88 % 1017,6 hPa 0,0 l/m 0 min 0 min 0 W/m 23,0 km/h (4 Bft)
26.11.2014 03:30 5,4 C 4,4 C 88 % 1017,6 hPa 0,0 l/m 0 min 0 min 0 W/m 20,9 km/h (4 Bft)
26.11.2014 03:32 5,4 C 3,9 C 88 % 1017,5 hPa 0,0 l/m 0 min 0 min 0 W/m 18,8 km/h (3 Bft)
26.11.2014 03:34 5,4 C 3,9 C 88 % 1017,5 hPa 0,0 l/m 0 min 0 min 0 W/m 20,9 km/h (4 Bft)
26.11.2014 03:36 5,4 C 3,9 C 88 % 1017,5 hPa 0,0 l/m 0 min 0 min 0 W/m 20,9 km/h (4 Bft)
26.11.2014 03:38 5,4 C 3,9 C 88 % 1017,5 hPa 0,0 l/m 0 min 0 min 0 W/m 29,3 km/h (5 Bft)
26.11.2014 03:40 5,4 C 3,9 C 88 % 1017,5 hPa 0,0 l/m 0 min 0 min 0 W/m 23,0 km/h (4 Bft)
26.11.2014 03:42 5,4 C 3,9 C 87 % 1017,5 hPa 0,0 l/m 0 min 0 min 0 W/m 29,3 km/h (5 Bft)
26.11.2014 03:44 5,4 C 3,9 C 87 % 1017,6 hPa 0,0 l/m 0 min 0 min 0 W/m 29,3 km/h (5 Bft)
26.11.2014 03:46 5,3 C 3,9 C 87 % 1017,5 hPa 0,0 l/m 0 min 0 min 0 W/m 23,0 km/h (4 Bft)
26.11.2014 03:48 5,4 C 3,9 C 87 % 1017,5 hPa 0,0 l/m 0 min 0 min 0 W/m 25,1 km/h (4 Bft)
26.11.2014 03:50 5,3 C 3,9 C 87 % 1017,5 hPa 0,0 l/m 0 min 0 min 0 W/m 29,3 km/h (5 Bft)
26.11.2014 03:52 5,3 C 3,9 C 87 % 1017,5 hPa 0,0 l/m 0 min 0 min 0 W/m 25,1 km/h (4 Bft)
26.11.2014 03:54 5,4 C 3,9 C 87 % 1017,5 hPa 0,0 l/m 0 min 0 min 0 W/m 20,9 km/h (4 Bft)
26.11.2014 03:56 5,4 C 3,9 C 87 % 1017,5 hPa 0,0 l/m 0 min 0 min 0 W/m 27,2 km/h (4 Bft)
26.11.2014 03:58 5,3 C 3,9 C 87 % 1017,5 hPa 0,0 l/m 0 min 0 min 0 W/m 20,9 km/h (4 Bft)
26.11.2014 04:00 5,3 C 3,9 C 87 % 1017,4 hPa 0,0 l/m 0 min 0 min 0 W/m 25,1 km/h (4 Bft)
26.11.2014 04:02 5,4 C 3,9 C 87 % 1017,3 hPa 0,0 l/m 0 min 0 min 0 W/m 23,0 km/h (4 Bft)
26.11.2014 04:07 5,4 C 3,9 C 86 % 1017,3 hPa 0,0 l/m 0 min 0 min 0 W/m 29,3 km/h (5 Bft)
26.11.2014 04:08 5,4 C 3,9 C 86 % 1017,3 hPa 0,0 l/m 0 min 0 min 0 W/m 16,7 km/h (3 Bft)
26.11.2014 04:10 5,4 C 3,9 C 86 % 1017,2 hPa 0,0 l/m 0 min 0 min 0 W/m 27,2 km/h (4 Bft)
26.11.2014 04:12 5,4 C 3,9 C 86 % 1017,1 hPa 0,0 l/m 0 min 0 min 0 W/m 25,1 km/h (4 Bft)
26.11.2014 04:14 5,4 C 3,9 C 86 % 1017,2 hPa 0,0 l/m 0 min 0 min 0 W/m 25,1 km/h (4 Bft)
26.11.2014 04:16 5,3 C 3,9 C 86 % 1017,1 hPa 0,0 l/m 0 min 0 min 0 W/m 25,1 km/h (4 Bft)
26.11.2014 04:18 5,3 C 3,9 C 86 % 1017,1 hPa 0,0 l/m 0 min 0 min 0 W/m 35,6 km/h (5 Bft)
26.11.2014 04:20 5,3 C 3,9 C 86 % 1017,1 hPa 0,0 l/m 0 min 0 min 0 W/m 27,2 km/h (4 Bft)
26.11.2014 04:22 5,3 C 3,9 C 86 % 1017,1 hPa 0,0 l/m 0 min 0 min 0 W/m 20,9 km/h (4 Bft)
26.11.2014 04:24 5,3 C 3,9 C 86 % 1017,1 hPa 0,0 l/m 0 min 0 min 0 W/m 20,9 km/h (4 Bft)
26.11.2014 04:26 5,3 C 3,9 C 86 % 1017,1 hPa 0,0 l/m 0 min 0 min 0 W/m 29,3 km/h (5 Bft)
26.11.2014 04:28 5,3 C 3,9 C 86 % 1017,1 hPa 0,0 l/m 0 min 0 min 0 W/m 25,1 km/h (4 Bft)
26.11.2014 04:30 5,3 C 3,9 C 86 % 1016,9 hPa 0,0 l/m 0 min 0 min 0 W/m 23,0 km/h (4 Bft)
26.11.2014 04:32 5,3 C 3,9 C 86 % 1017,0 hPa 0,0 l/m 0 min 0 min 0 W/m 31,4 km/h (5 Bft)
26.11.2014 04:34 5,3 C 3,9 C 86 % 1017,0 hPa 0,0 l/m 0 min 0 min 0 W/m 27,2 km/h (4 Bft)
26.11.2014 04:36 5,3 C 3,9 C 86 % 1017,0 hPa 0,0 l/m 0 min 0 min 0 W/m 18,8 km/h (3 Bft)
26.11.2014 04:38 5,3 C 3,9 C 86 % 1017,0 hPa 0,0 l/m 0 min 0 min 0 W/m 31,4 km/h (5 Bft)
26.11.2014 04:40 5,3 C 3,9 C 86 % 1016,9 hPa 0,0 l/m 0 min 0 min 0 W/m 29,3 km/h (5 Bft)
26.11.2014 04:42 5,3 C 3,9 C 86 % 1016,9 hPa 0,0 l/m 0 min 0 min 0 W/m 27,2 km/h (4 Bft)
26.11.2014 04:44 5,3 C 3,9 C 86 % 1016,9 hPa 0,0 l/m 0 min 0 min 0 W/m 31,4 km/h (5 Bft)
26.11.2014 04:46 5,3 C 3,9 C 86 % 1016,9 hPa 0,0 l/m 0 min 0 min 0 W/m 20,9 km/h (4 Bft)
26.11.2014 04:48 5,3 C 3,9 C 86 % 1016,9 hPa 0,0 l/m 0 min 0 min 0 W/m 23,0 km/h (4 Bft)
26.11.2014 04:50 5,2 C 3,9 C 86 % 1016,9 hPa 0,0 l/m 0 min 0 min 0 W/m 20,9 km/h (4 Bft)
26.11.2014 04:52 5,2 C 3,9 C 86 % 1016,9 hPa 0,0 l/m 0 min 0 min 0 W/m 16,7 km/h (3 Bft)
26.11.2014 04:54 5,2 C 3,9 C 85 % 1016,9 hPa 0,0 l/m 0 min 0 min 0 W/m 18,8 km/h (3 Bft)
26.11.2014 04:56 5,2 C 3,9 C 85 % 1016,8 hPa 0,0 l/m 0 min 0 min 0 W/m 35,6 km/h (5 Bft)
26.11.2014 04:58 5,2 C 3,9 C 85 % 1016,8 hPa 0,0 l/m 0 min 0 min 0 W/m 35,6 km/h (5 Bft)
26.11.2014 05:00 5,2 C 3,9 C 85 % 1016,7 hPa 0,0 l/m 0 min 0 min 0 W/m 18,8 km/h (3 Bft)
26.11.2014 05:02 5,2 C 3,9 C 85 % 1016,7 hPa 0,0 l/m 0 min 0 min 0 W/m 29,3 km/h (5 Bft)
26.11.2014 05:04 5,2 C 3,9 C 85 % 1016,7 hPa 0,0 l/m 0 min 0 min 0 W/m 31,4 km/h (5 Bft)
26.11.2014 05:06 5,1 C 3,9 C 85 % 1016,8 hPa 0,0 l/m 0 min 0 min 0 W/m 18,8 km/h (3 Bft)
26.11.2014 05:08 5,1 C 3,9 C 85 % 1016,7 hPa 0,0 l/m 0 min 0 min 0 W/m 27,2 km/h (4 Bft)
26.11.2014 05:10 5,1 C 3,9 C 85 % 1016,7 hPa 0,0 l/m 0 min 0 min 0 W/m 27,2 km/h (4 Bft)
26.11.2014 05:12 5,1 C 3,9 C 85 % 1016,7 hPa 0,0 l/m 0 min 0 min 0 W/m 25,1 km/h (4 Bft)
26.11.2014 05:14 5,1 C 3,3 C 85 % 1016,7 hPa 0,0 l/m 0 min 0 min 0 W/m 18,8 km/h (3 Bft)
26.11.2014 05:16 5,0 C 3,3 C 86 % 1016,7 hPa 0,0 l/m 0 min 0 min 0 W/m 27,2 km/h (4 Bft)
26.11.2014 05:18 5,0 C 3,3 C 86 % 1016,7 hPa 0,0 l/m 0 min 0 min 0 W/m 29,3 km/h (5 Bft)
26.11.2014 05:20 4,9 C 3,3 C 86 % 1016,7 hPa 0,0 l/m 0 min 0 min 0 W/m 20,9 km/h (4 Bft)
26.11.2014 05:22 4,9 C 3,3 C 86 % 1016,7 hPa 0,0 l/m 0 min 0 min 0 W/m 20,9 km/h (4 Bft)
26.11.2014 05:24 4,9 C 3,3 C 86 % 1016,7 hPa 0,0 l/m 0 min 0 min 0 W/m 23,0 km/h (4 Bft)
26.11.2014 05:26 4,9 C 3,3 C 86 % 1016,7 hPa 0,0 l/m 0 min 0 min 0 W/m 23,0 km/h (4 Bft)
26.11.2014 05:28 4,9 C 3,3 C 86 % 1016,6 hPa 0,0 l/m 0 min 0 min 0 W/m 33,5 km/h (5 Bft)
26.11.2014 05:30 4,9 C 3,3 C 86 % 1016,7 hPa 0,0 l/m 0 min 0 min 0 W/m 27,2 km/h (4 Bft)
26.11.2014 05:32 4,9 C 3,3 C 86 % 1016,6 hPa 0,0 l/m 0 min 0 min 0 W/m 23,0 km/h (4 Bft)
26.11.2014 05:34 4,9 C 3,3 C 86 % 1016,7 hPa 0,0 l/m 0 min 0 min 0 W/m 31,4 km/h (5 Bft)
26.11.2014 05:36 4,8 C 3,3 C 86 % 1016,7 hPa 0,0 l/m 0 min 0 min 0 W/m 27,2 km/h (4 Bft)
26.11.2014 05:38 4,8 C 3,3 C 86 % 1016,6 hPa 0,0 l/m 0 min 0 min 0 W/m 27,2 km/h (4 Bft)
26.11.2014 05:40 4,8 C 3,3 C 86 % 1016,7 hPa 0,0 l/m 0 min 0 min 0 W/m 23,0 km/h (4 Bft)
26.11.2014 05:42 4,8 C 3,3 C 86 % 1016,6 hPa 0,0 l/m 0 min 0 min 0 W/m 27,2 km/h (4 Bft)
26.11.2014 05:44 4,8 C 3,3 C 86 % 1016,7 hPa 0,0 l/m 0 min 0 min 0 W/m 25,1 km/h (4 Bft)
26.11.2014 05:46 4,8 C 3,3 C 86 % 1016,7 hPa 0,0 l/m 0 min 0 min 0 W/m 27,2 km/h (4 Bft)
26.11.2014 05:48 4,8 C 3,3 C 86 % 1016,6 hPa 0,0 l/m 0 min 0 min 0 W/m 31,4 km/h (5 Bft)
26.11.2014 05:50 4,7 C 3,3 C 86 % 1016,6 hPa 0,0 l/m 0 min 0 min 0 W/m 23,0 km/h (4 Bft)
26.11.2014 05:52 4,7 C 3,3 C 86 % 1016,6 hPa 0,0 l/m 0 min 0 min 0 W/m 27,2 km/h (4 Bft)
26.11.2014 05:54 4,7 C 3,3 C 86 % 1016,6 hPa 0,0 l/m 0 min 0 min 0 W/m 25,1 km/h (4 Bft)
26.11.2014 05:56 4,7 C 3,3 C 86 % 1016,6 hPa 0,0 l/m 0 min 0 min 0 W/m 27,2 km/h (4 Bft)
26.11.2014 05:58 4,7 C 3,3 C 86 % 1016,6 hPa 0,0 l/m 0 min 0 min 0 W/m 27,2 km/h (4 Bft)
26.11.2014 06:00 4,7 C 3,3 C 86 % 1016,5 hPa 0,0 l/m 0 min 0 min 0 W/m 29,3 km/h (5 Bft)
26.11.2014 06:02 4,6 C 3,3 C 86 % 1016,5 hPa 0,0 l/m 0 min 0 min 0 W/m 20,9 km/h (4 Bft)
26.11.2014 06:05 4,6 C 3,3 C 86 % 1016,5 hPa 0,0 l/m 0 min 0 min 0 W/m 29,3 km/h (5 Bft)
26.11.2014 06:06 4,6 C 3,3 C 86 % 1016,5 hPa 0,0 l/m 0 min 0 min 0 W/m 29,3 km/h (5 Bft)
26.11.2014 06:08 4,6 C 3,3 C 86 % 1016,5 hPa 0,0 l/m 0 min 0 min 0 W/m 27,2 km/h (4 Bft)
26.11.2014 06:10 4,6 C 3,3 C 86 % 1016,4 hPa 0,0 l/m 0 min 0 min 0 W/m 20,9 km/h (4 Bft)
26.11.2014 06:12 4,5 C 3,3 C 86 % 1016,4 hPa 0,0 l/m 0 min 0 min 0 W/m 27,2 km/h (4 Bft)
26.11.2014 06:14 4,5 C 3,3 C 86 % 1016,4 hPa 0,0 l/m 0 min 0 min 0 W/m 31,4 km/h (5 Bft)
26.11.2014 06:16 4,5 C 3,3 C 86 % 1016,3 hPa 0,0 l/m 0 min 0 min 0 W/m 29,3 km/h (5 Bft)
26.11.2014 06:18 4,5 C 3,3 C 86 % 1016,4 hPa 0,0 l/m 0 min 0 min 0 W/m 27,2 km/h (4 Bft)
26.11.2014 06:20 4,5 C 3,3 C 86 % 1016,3 hPa 0,0 l/m 0 min 0 min 0 W/m 27,2 km/h (4 Bft)
26.11.2014 06:22 4,4 C 3,3 C 86 % 1016,4 hPa 0,0 l/m 0 min 0 min 0 W/m 27,2 km/h (4 Bft)
26.11.2014 06:24 4,4 C 3,3 C 86 % 1016,3 hPa 0,0 l/m 0 min 0 min 0 W/m 27,2 km/h (4 Bft)
26.11.2014 06:26 4,4 C 3,3 C 86 % 1016,4 hPa 0,0 l/m 0 min 0 min 0 W/m 23,0 km/h (4 Bft)
26.11.2014 06:28 4,4 C 3,3 C 87 % 1016,4 hPa 0,0 l/m 0 min 0 min 0 W/m 20,9 km/h (4 Bft)
26.11.2014 06:30 4,4 C 3,3 C 87 % 1016,3 hPa 0,0 l/m 0 min 0 min 0 W/m 16,7 km/h (3 Bft)
26.11.2014 06:32 4,4 C 3,3 C 87 % 1016,4 hPa 0,0 l/m 0 min 0 min 0 W/m 29,3 km/h (5 Bft)
26.11.2014 06:34 4,4 C 3,3 C 87 % 1016,4 hPa 0,0 l/m 0 min 0 min 0 W/m 18,8 km/h (3 Bft)
26.11.2014 06:36 4,4 C 3,3 C 87 % 1016,4 hPa 0,0 l/m 0 min 0 min 0 W/m 23,0 km/h (4 Bft)
26.11.2014 06:38 4,4 C 3,3 C 87 % 1016,4 hPa 0,0 l/m 0 min 0 min 0 W/m 23,0 km/h (4 Bft)
26.11.2014 06:40 4,4 C 3,3 C 87 % 1016,3 hPa 0,0 l/m 0 min 0 min 0 W/m 29,3 km/h (5 Bft)
26.11.2014 06:42 4,4 C 3,3 C 87 % 1016,4 hPa 0,0 l/m 0 min 0 min 0 W/m 23,0 km/h (4 Bft)
26.11.2014 06:44 4,4 C 3,3 C 87 % 1016,4 hPa 0,0 l/m 0 min 0 min 0 W/m 20,9 km/h (4 Bft)
26.11.2014 06:46 4,4 C 3,3 C 87 % 1016,3 hPa 0,0 l/m 0 min 0 min 0 W/m 25,1 km/h (4 Bft)
26.11.2014 06:48 4,4 C 3,3 C 87 % 1016,3 hPa 0,0 l/m 0 min 0 min 0 W/m 25,1 km/h (4 Bft)
26.11.2014 06:50 4,4 C 3,3 C 87 % 1016,4 hPa 0,0 l/m 0 min 0 min 0 W/m 27,2 km/h (4 Bft)
26.11.2014 06:52 4,4 C 3,3 C 87 % 1016,3 hPa 0,0 l/m 0 min 0 min 0 W/m 23,0 km/h (4 Bft)
26.11.2014 06:54 4,4 C 3,3 C 87 % 1016,3 hPa 0,0 l/m 0 min 0 min 0 W/m 29,3 km/h (5 Bft)
26.11.2014 06:56 4,4 C 3,3 C 87 % 1016,2 hPa 0,0 l/m 0 min 0 min 0 W/m 25,1 km/h (4 Bft)
26.11.2014 06:58 4,4 C 3,3 C 87 % 1016,2 hPa 0,0 l/m 0 min 0 min 0 W/m 23,0 km/h (4 Bft)
26.11.2014 07:00 4,4 C 3,3 C 87 % 1016,3 hPa 0,0 l/m 0 min 0 min 0 W/m 20,9 km/h (4 Bft)
26.11.2014 07:02 4,4 C 3,3 C 87 % 1016,3 hPa 0,0 l/m 0 min 0 min 0 W/m 27,2 km/h (4 Bft)
26.11.2014 07:04 4,4 C 3,3 C 87 % 1016,2 hPa 0,0 l/m 0 min 0 min 0 W/m 23,0 km/h (4 Bft)
26.11.2014 07:06 4,4 C 3,3 C 87 % 1016,2 hPa 0,0 l/m 0 min 0 min 0 W/m 23,0 km/h (4 Bft)
26.11.2014 07:08 4,4 C 3,3 C 87 % 1016,1 hPa 0,0 l/m 0 min 0 min 0 W/m 20,9 km/h (4 Bft)
26.11.2014 07:10 4,4 C 3,3 C 87 % 1016,2 hPa 0,0 l/m 0 min 0 min 0 W/m 18,8 km/h (3 Bft)
26.11.2014 07:12 4,4 C 3,3 C 87 % 1016,2 hPa 0,0 l/m 0 min 0 min 0 W/m 18,8 km/h (3 Bft)
26.11.2014 07:14 4,4 C 3,3 C 87 % 1016,1 hPa 0,0 l/m 0 min 0 min 0 W/m 25,1 km/h (4 Bft)
26.11.2014 07:16 4,4 C 3,3 C 87 % 1016,2 hPa 0,0 l/m 0 min 0 min 0 W/m 25,1 km/h (4 Bft)
26.11.2014 07:18 4,4 C 3,3 C 87 % 1016,2 hPa 0,0 l/m 0 min 0 min 0 W/m 25,1 km/h (4 Bft)
26.11.2014 07:20 4,4 C 3,3 C 87 % 1016,1 hPa 0,0 l/m 0 min 0 min 0 W/m 29,3 km/h (5 Bft)
26.11.2014 07:22 4,4 C 3,3 C 87 % 1016,1 hPa 0,0 l/m 0 min 0 min 0 W/m 23,0 km/h (4 Bft)
26.11.2014 07:24 4,4 C 3,3 C 87 % 1016,2 hPa 0,0 l/m 0 min 0 min 0 W/m 20,9 km/h (4 Bft)
26.11.2014 07:26 4,4 C 3,3 C 87 % 1016,1 hPa 0,0 l/m 0 min 0 min 0 W/m 27,2 km/h (4 Bft)
26.11.2014 07:28 4,4 C 3,3 C 87 % 1016,1 hPa 0,0 l/m 0 min 0 min 0 W/m 23,0 km/h (4 Bft)
26.11.2014 07:30 4,4 C 3,3 C 87 % 1016,2 hPa 0,0 l/m 0 min 0 min 0 W/m 20,9 km/h (4 Bft)
26.11.2014 07:32 4,4 C 3,3 C 87 % 1016,1 hPa 0,0 l/m 0 min 0 min 0 W/m 16,7 km/h (3 Bft)
26.11.2014 07:34 4,3 C 3,3 C 87 % 1016,2 hPa 0,0 l/m 0 min 0 min 0 W/m 25,1 km/h (4 Bft)
26.11.2014 07:36 4,3 C 3,3 C 87 % 1016,1 hPa 0,0 l/m 0 min 0 min 0 W/m 18,8 km/h (3 Bft)
26.11.2014 07:38 4,3 C 3,3 C 87 % 1016,1 hPa 0,0 l/m 0 min 0 min 0 W/m 20,9 km/h (4 Bft)
26.11.2014 07:40 4,3 C 3,3 C 86 % 1016,1 hPa 0,0 l/m 0 min 0 min 0 W/m 18,8 km/h (3 Bft)
26.11.2014 07:42 4,3 C 3,3 C 86 % 1016,1 hPa 0,0 l/m 0 min 0 min 0 W/m 20,9 km/h (4 Bft)
26.11.2014 07:44 4,3 C 3,3 C 86 % 1016,1 hPa 0,0 l/m 0 min 0 min 0 W/m 23,0 km/h (4 Bft)
26.11.2014 07:46 4,3 C 3,3 C 86 % 1016,1 hPa 0,0 l/m 0 min 0 min 0 W/m 25,1 km/h (4 Bft)
26.11.2014 07:48 4,3 C 3,3 C 86 % 1016,1 hPa 0,0 l/m 0 min 0 min 0 W/m 29,3 km/h (5 Bft)
26.11.2014 07:50 4,3 C 3,3 C 86 % 1016,1 hPa 0,0 l/m 0 min 0 min 0 W/m 14,6 km/h (3 Bft)
26.11.2014 07:52 4,3 C 3,3 C 86 % 1016,1 hPa 0,0 l/m 0 min 0 min 0 W/m 23,0 km/h (4 Bft)
26.11.2014 07:54 4,3 C 3,3 C 86 % 1016,0 hPa 0,0 l/m 0 min 0 min 0 W/m 23,0 km/h (4 Bft)
26.11.2014 07:56 4,3 C 3,3 C 86 % 1016,0 hPa 0,0 l/m 0 min 0 min 0 W/m 23,0 km/h (4 Bft)
26.11.2014 07:58 4,3 C 3,3 C 86 % 1016,1 hPa 0,0 l/m 0 min 0 min 0 W/m 25,1 km/h (4 Bft)
26.11.2014 08:00 4,3 C 3,3 C 86 % 1016,1 hPa 0,0 l/m 0 min 0 min 0 W/m 29,3 km/h (5 Bft)
26.11.2014 08:02 4,3 C 3,3 C 86 % 1016,1 hPa 0,0 l/m 0 min 0 min 0 W/m 16,7 km/h (3 Bft)
26.11.2014 08:04 4,3 C 3,3 C 86 % 1016,1 hPa 0,0 l/m 0 min 0 min 0 W/m 23,0 km/h (4 Bft)
26.11.2014 08:06 4,3 C 3,3 C 86 % 1016,1 hPa 0,0 l/m 0 min 0 min 2 W/m 18,8 km/h (3 Bft)
26.11.2014 08:08 4,3 C 3,3 C 86 % 1016,1 hPa 0,0 l/m 0 min 0 min 5 W/m 18,8 km/h (3 Bft)
26.11.2014 08:10 4,3 C 3,3 C 86 % 1016,1 hPa 0,0 l/m 0 min 0 min 5 W/m 20,9 km/h (4 Bft)
26.11.2014 08:12 4,3 C 3,3 C 86 % 1016,1 hPa 0,0 l/m 0 min 0 min 6 W/m 20,9 km/h (4 Bft)
26.11.2014 08:14 4,2 C 3,3 C 86 % 1016,1 hPa 0,0 l/m 0 min 0 min 7 W/m 35,6 km/h (5 Bft)
26.11.2014 08:16 4,2 C 3,3 C 86 % 1016,1 hPa 0,0 l/m 0 min 0 min 7 W/m 25,1 km/h (4 Bft)
26.11.2014 08:18 4,2 C 3,3 C 86 % 1016,1 hPa 0,0 l/m 0 min 0 min 8 W/m 31,4 km/h (5 Bft)
26.11.2014 08:20 4,2 C 3,3 C 86 % 1016,1 hPa 0,0 l/m 0 min 0 min 9 W/m 18,8 km/h (3 Bft)
26.11.2014 08:22 4,2 C 3,3 C 86 % 1016,1 hPa 0,0 l/m 0 min 0 min 10 W/m 18,8 km/h (3 Bft)
26.11.2014 08:24 4,2 C 3,3 C 86 % 1016,1 hPa 0,0 l/m 0 min 0 min 11 W/m 18,8 km/h (3 Bft)
26.11.2014 08:26 4,2 C 3,3 C 86 % 1016,1 hPa 0,0 l/m 0 min 0 min 12 W/m 16,7 km/h (3 Bft)
26.11.2014 08:28 4,2 C 3,3 C 86 % 1016,1 hPa 0,0 l/m 0 min 0 min 12 W/m 18,8 km/h (3 Bft)
26.11.2014 08:30 4,2 C 3,3 C 86 % 1016,1 hPa 0,0 l/m 0 min 0 min 14 W/m 29,3 km/h (5 Bft)
26.11.2014 08:32 4,2 C 3,3 C 86 % 1016,1 hPa 0,0 l/m 0 min 0 min 16 W/m 27,2 km/h (4 Bft)
26.11.2014 08:34 4,2 C 3,3 C 86 % 1016,1 hPa 0,0 l/m 0 min 0 min 16 W/m 31,4 km/h (5 Bft)
26.11.2014 08:36 4,2 C 3,3 C 86 % 1016,1 hPa 0,0 l/m 0 min 0 min 18 W/m 27,2 km/h (4 Bft)
26.11.2014 08:38 4,2 C 3,3 C 86 % 1016,1 hPa 0,0 l/m 0 min 0 min 19 W/m 27,2 km/h (4 Bft)
26.11.2014 08:40 4,2 C 3,3 C 86 % 1016,1 hPa 0,0 l/m 0 min 0 min 20 W/m 31,4 km/h (5 Bft)
26.11.2014 08:42 4,2 C 3,3 C 86 % 1016,0 hPa 0,0 l/m 0 min 0 min 21 W/m 23,0 km/h (4 Bft)
26.11.2014 08:44 4,2 C 3,3 C 86 % 1015,9 hPa 0,0 l/m 0 min 0 min 23 W/m 23,0 km/h (4 Bft)
26.11.2014 08:46 4,2 C 3,3 C 86 % 1015,9 hPa 0,0 l/m 0 min 0 min 25 W/m 18,8 km/h (3 Bft)
26.11.2014 08:48 4,2 C 3,3 C 86 % 1016,0 hPa 0,0 l/m 0 min 0 min 28 W/m 29,3 km/h (5 Bft)
26.11.2014 08:50 4,2 C 3,3 C 86 % 1016,1 hPa 0,0 l/m 0 min 0 min 31 W/m 27,2 km/h (4 Bft)
26.11.2014 08:52 4,3 C 3,3 C 86 % 1015,9 hPa 0,0 l/m 0 min 0 min 34 W/m 23,0 km/h (4 Bft)
26.11.2014 08:54 4,3 C 3,3 C 86 % 1015,9 hPa 0,0 l/m 0 min 0 min 38 W/m 29,3 km/h (5 Bft)
26.11.2014 08:56 4,3 C 3,3 C 86 % 1015,9 hPa 0,0 l/m 0 min 0 min 43 W/m 23,0 km/h (4 Bft)
26.11.2014 08:58 4,3 C 3,3 C 86 % 1015,9 hPa 0,0 l/m 0 min 0 min 45 W/m 18,8 km/h (3 Bft)
26.11.2014 09:00 4,3 C 3,3 C 86 % 1015,9 hPa 0,0 l/m 0 min 0 min 46 W/m 31,4 km/h (5 Bft)
26.11.2014 09:02 4,3 C 3,3 C 86 % 1015,9 hPa 0,0 l/m 0 min 0 min 46 W/m 27,2 km/h (4 Bft)
26.11.2014 09:04 4,3 C 3,3 C 85 % 1015,9 hPa 0,0 l/m 0 min 0 min 46 W/m 31,4 km/h (5 Bft)
26.11.2014 09:06 4,3 C 3,3 C 85 % 1015,9 hPa 0,0 l/m 0 min 0 min 47 W/m 31,4 km/h (5 Bft)
26.11.2014 09:08 4,3 C 3,3 C 85 % 1015,9 hPa 0,0 l/m 0 min 0 min 48 W/m 27,2 km/h (4 Bft)
26.11.2014 09:10 4,4 C 3,3 C 85 % 1015,9 hPa 0,0 l/m 0 min 0 min 49 W/m 27,2 km/h (4 Bft)
26.11.2014 09:12 4,4 C 3,3 C 85 % 1015,9 hPa 0,0 l/m 0 min 0 min 49 W/m 23,0 km/h (4 Bft)
26.11.2014 09:14 4,4 C 3,3 C 85 % 1015,9 hPa 0,0 l/m 0 min 0 min 50 W/m 18,8 km/h (3 Bft)
26.11.2014 09:16 4,4 C 3,3 C 85 % 1015,8 hPa 0,0 l/m 0 min 0 min 52 W/m 27,2 km/h (4 Bft)
26.11.2014 09:18 4,4 C 3,3 C 85 % 1015,9 hPa 0,0 l/m 0 min 0 min 53 W/m 27,2 km/h (4 Bft)
26.11.2014 09:20 4,4 C 3,3 C 85 % 1015,9 hPa 0,0 l/m 0 min 0 min 54 W/m 25,1 km/h (4 Bft)
26.11.2014 09:22 4,4 C 3,3 C 85 % 1015,9 hPa 0,0 l/m 0 min 0 min 56 W/m 29,3 km/h (5 Bft)
26.11.2014 09:24 4,4 C 3,3 C 85 % 1015,8 hPa 0,0 l/m 0 min 0 min 58 W/m 23,0 km/h (4 Bft)
26.11.2014 09:26 4,4 C 3,3 C 85 % 1015,8 hPa 0,0 l/m 0 min 0 min 58 W/m 25,1 km/h (4 Bft)
26.11.2014 09:28 4,4 C 3,9 C 85 % 1015,8 hPa 0,0 l/m 0 min 0 min 61 W/m 20,9 km/h (4 Bft)
26.11.2014 09:30 4,5 C 3,9 C 85 % 1015,8 hPa 0,0 l/m 0 min 0 min 62 W/m 48,1 km/h (6 Bft)
26.11.2014 09:32 4,5 C 3,9 C 85 % 1015,8 hPa 0,0 l/m 0 min 0 min 63 W/m 31,4 km/h (5 Bft)
26.11.2014 09:34 4,5 C 3,9 C 85 % 1015,8 hPa 0,0 l/m 0 min 0 min 65 W/m 33,5 km/h (5 Bft)
26.11.2014 09:36 4,6 C 3,9 C 85 % 1015,8 hPa 0,0 l/m 0 min 0 min 68 W/m 35,6 km/h (5 Bft)
26.11.2014 09:38 4,6 C 3,9 C 85 % 1015,7 hPa 0,0 l/m 0 min 0 min 70 W/m 23,0 km/h (4 Bft)
26.11.2014 09:40 4,6 C 3,9 C 85 % 1015,7 hPa 0,0 l/m 0 min 0 min 74 W/m 29,3 km/h (5 Bft)
26.11.2014 09:42 4,6 C 3,9 C 85 % 1015,7 hPa 0,0 l/m 0 min 0 min 75 W/m 31,4 km/h (5 Bft)
26.11.2014 09:44 4,6 C 3,9 C 85 % 1015,7 hPa 0,0 l/m 0 min 0 min 77 W/m 33,5 km/h (5 Bft)
26.11.2014 09:46 4,6 C 3,9 C 85 % 1015,7 hPa 0,0 l/m 0 min 0 min 80 W/m 31,4 km/h (5 Bft)
26.11.2014 09:48 4,6 C 3,9 C 85 % 1015,7 hPa 0,0 l/m 0 min 0 min 80 W/m 23,0 km/h (4 Bft)
26.11.2014 09:50 4,7 C 3,9 C 85 % 1015,7 hPa 0,0 l/m 0 min 0 min 77 W/m 27,2 km/h (4 Bft)
26.11.2014 09:52 4,7 C 3,9 C 85 % 1015,7 hPa 0,0 l/m 0 min 0 min 77 W/m 35,6 km/h (5 Bft)
26.11.2014 09:54 4,7 C 3,9 C 85 % 1015,7 hPa 0,0 l/m 0 min 0 min 79 W/m 25,1 km/h (4 Bft)
26.11.2014 09:56 4,7 C 3,9 C 85 % 1015,7 hPa 0,0 l/m 0 min 0 min 81 W/m 25,1 km/h (4 Bft)
26.11.2014 09:58 4,7 C 3,9 C 85 % 1015,7 hPa 0,0 l/m 0 min 0 min 83 W/m 27,2 km/h (4 Bft)
26.11.2014 10:00 4,7 C 3,9 C 85 % 1015,7 hPa 0,0 l/m 0 min 0 min 85 W/m 31,4 km/h (5 Bft)
26.11.2014 10:02 4,7 C 3,9 C 85 % 1015,7 hPa 0,0 l/m 0 min 0 min 85 W/m 29,3 km/h (5 Bft)
26.11.2014 10:04 4,7 C 3,9 C 84 % 1015,7 hPa 0,0 l/m 0 min 0 min 86 W/m 33,5 km/h (5 Bft)
26.11.2014 10:06 4,7 C 3,9 C 84 % 1015,7 hPa 0,0 l/m 0 min 0 min 89 W/m 37,7 km/h (5 Bft)
26.11.2014 10:08 4,7 C 3,9 C 84 % 1015,7 hPa 0,0 l/m 0 min 0 min 91 W/m 35,6 km/h (5 Bft)
26.11.2014 10:10 4,7 C 3,9 C 84 % 1015,7 hPa 0,0 l/m 0 min 0 min 90 W/m 27,2 km/h (4 Bft)
26.11.2014 10:12 4,7 C 3,9 C 84 % 1015,7 hPa 0,0 l/m 0 min 0 min 91 W/m 29,3 km/h (5 Bft)
26.11.2014 10:14 4,7 C 3,9 C 84 % 1015,7 hPa 0,0 l/m 0 min 0 min 91 W/m 33,5 km/h (5 Bft)
26.11.2014 10:16 4,8 C 3,9 C 84 % 1015,7 hPa 0,0 l/m 0 min 0 min 94 W/m 23,0 km/h (4 Bft)
26.11.2014 10:18 4,8 C 3,9 C 84 % 1015,7 hPa 0,0 l/m 0 min 0 min 98 W/m 27,2 km/h (4 Bft)
26.11.2014 10:20 4,8 C 3,9 C 84 % 1015,7 hPa 0,0 l/m 0 min 0 min 101 W/m 31,4 km/h (5 Bft)
26.11.2014 10:22 4,8 C 3,9 C 84 % 1015,8 hPa 0,0 l/m 0 min 0 min 101 W/m 31,4 km/h (5 Bft)
26.11.2014 10:24 4,8 C 3,9 C 84 % 1015,8 hPa 0,0 l/m 0 min 0 min 104 W/m 31,4 km/h (5 Bft)
26.11.2014 10:26 4,8 C 3,9 C 84 % 1015,7 hPa 0,0 l/m 0 min 0 min 104 W/m 35,6 km/h (5 Bft)
26.11.2014 10:28 4,8 C 3,9 C 84 % 1015,7 hPa 0,0 l/m 0 min 0 min 109 W/m 31,4 km/h (5 Bft)
26.11.2014 10:30 4,8 C 3,9 C 84 % 1015,7 hPa 0,0 l/m 0 min 0 min 111 W/m 27,2 km/h (4 Bft)
26.11.2014 10:32 4,8 C 4,4 C 84 % 1015,6 hPa 0,0 l/m 0 min 0 min 115 W/m 18,8 km/h (3 Bft)
26.11.2014 10:34 4,9 C 4,4 C 84 % 1015,7 hPa 0,0 l/m 0 min 0 min 119 W/m 20,9 km/h (4 Bft)
26.11.2014 10:36 4,9 C 4,4 C 84 % 1015,7 hPa 0,0 l/m 0 min 0 min 121 W/m 29,3 km/h (5 Bft)
26.11.2014 10:38 4,9 C 4,4 C 84 % 1015,6 hPa 0,0 l/m 0 min 0 min 122 W/m 18,8 km/h (3 Bft)
26.11.2014 10:40 4,9 C 4,4 C 85 % 1015,6 hPa 0,0 l/m 0 min 0 min 123 W/m 31,4 km/h (5 Bft)
26.11.2014 10:42 5,0 C 4,4 C 85 % 1015,7 hPa 0,0 l/m 0 min 0 min 134 W/m 23,0 km/h (4 Bft)
26.11.2014 10:44 5,0 C 4,4 C 85 % 1015,7 hPa 0,0 l/m 0 min 0 min 130 W/m 29,3 km/h (5 Bft)
26.11.2014 10:46 5,1 C 4,4 C 85 % 1015,6 hPa 0,0 l/m 0 min 0 min 129 W/m 29,3 km/h (5 Bft)
26.11.2014 10:48 5,1 C 4,4 C 84 % 1015,6 hPa 0,0 l/m 0 min 0 min 127 W/m 20,9 km/h (4 Bft)
26.11.2014 10:50 5,1 C 4,4 C 84 % 1015,6 hPa 0,0 l/m 0 min 0 min 127 W/m 25,1 km/h (4 Bft)
26.11.2014 10:52 5,1 C 4,4 C 84 % 1015,6 hPa 0,0 l/m 0 min 0 min 124 W/m 31,4 km/h (5 Bft)
26.11.2014 10:54 5,1 C 4,4 C 84 % 1015,6 hPa 0,0 l/m 0 min 0 min 124 W/m 33,5 km/h (5 Bft)
26.11.2014 10:56 5,1 C 4,4 C 84 % 1015,6 hPa 0,0 l/m 0 min 0 min 124 W/m 31,4 km/h (5 Bft)
26.11.2014 10:58 5,2 C 4,4 C 84 % 1015,6 hPa 0,0 l/m 0 min 0 min 124 W/m 27,2 km/h (4 Bft)
26.11.2014 11:00 5,2 C 4,4 C 84 % 1015,5 hPa 0,0 l/m 0 min 0 min 123 W/m 33,5 km/h (5 Bft)
26.11.2014 11:02 5,2 C 4,4 C 84 % 1015,5 hPa 0,0 l/m 0 min 0 min 122 W/m 29,3 km/h (5 Bft)
26.11.2014 11:04 5,2 C 4,4 C 84 % 1015,5 hPa 0,0 l/m 0 min 0 min 126 W/m 25,1 km/h (4 Bft)
26.11.2014 11:06 5,2 C 4,4 C 84 % 1015,5 hPa 0,0 l/m 0 min 0 min 129 W/m 29,3 km/h (5 Bft)
26.11.2014 11:08 5,3 C 4,4 C 84 % 1015,5 hPa 0,0 l/m 0 min 0 min 129 W/m 33,5 km/h (5 Bft)
26.11.2014 11:10 5,3 C 4,4 C 84 % 1015,5 hPa 0,0 l/m 0 min 0 min 130 W/m 27,2 km/h (4 Bft)
26.11.2014 11:12 5,3 C 4,4 C 84 % 1015,5 hPa 0,0 l/m 0 min 0 min 133 W/m 29,3 km/h (5 Bft)
26.11.2014 11:14 5,3 C 4,4 C 84 % 1015,5 hPa 0,0 l/m 0 min 0 min 130 W/m 35,6 km/h (5 Bft)
26.11.2014 11:16 5,3 C 4,4 C 84 % 1015,5 hPa 0,0 l/m 0 min 0 min 133 W/m 25,1 km/h (4 Bft)
26.11.2014 11:18 5,4 C 4,4 C 84 % 1015,5 hPa 0,0 l/m 0 min 0 min 137 W/m 25,1 km/h (4 Bft)
26.11.2014 11:20 5,4 C 4,4 C 84 % 1015,5 hPa 0,0 l/m 0 min 0 min 140 W/m 25,1 km/h (4 Bft)
26.11.2014 11:22 5,4 C 4,4 C 84 % 1015,4 hPa 0,0 l/m 0 min 0 min 139 W/m 29,3 km/h (5 Bft)
26.11.2014 11:24 5,4 C 5,0 C 84 % 1015,4 hPa 0,0 l/m 0 min 0 min 141 W/m 27,2 km/h (4 Bft)
26.11.2014 11:26 5,4 C 5,0 C 84 % 1015,4 hPa 0,0 l/m 0 min 0 min 141 W/m 37,7 km/h (5 Bft)
26.11.2014 11:28 5,5 C 5,0 C 84 % 1015,4 hPa 0,0 l/m 0 min 0 min 137 W/m 29,3 km/h (5 Bft)
26.11.2014 11:30 5,5 C 5,0 C 84 % 1015,4 hPa 0,0 l/m 0 min 0 min 132 W/m 33,5 km/h (5 Bft)
26.11.2014 11:32 5,5 C 5,0 C 84 % 1015,4 hPa 0,0 l/m 0 min 0 min 128 W/m 23,0 km/h (4 Bft)
26.11.2014 11:34 5,5 C 4,4 C 84 % 1015,4 hPa 0,0 l/m 0 min 0 min 125 W/m 33,5 km/h (5 Bft)
26.11.2014 11:36 5,5 C 4,4 C 84 % 1015,2 hPa 0,0 l/m 0 min 0 min 125 W/m 29,3 km/h (5 Bft)
26.11.2014 11:38 5,6 C 5,0 C 84 % 1015,2 hPa 0,0 l/m 0 min 0 min 122 W/m 31,4 km/h (5 Bft)
26.11.2014 11:40 5,6 C 5,0 C 84 % 1015,2 hPa 0,0 l/m 0 min 0 min 122 W/m 25,1 km/h (4 Bft)
26.11.2014 11:42 5,6 C 5,0 C 84 % 1015,2 hPa 0,0 l/m 0 min 0 min 122 W/m 25,1 km/h (4 Bft)
26.11.2014 11:44 5,6 C 5,0 C 84 % 1015,3 hPa 0,0 l/m 0 min 0 min 121 W/m 29,3 km/h (5 Bft)
26.11.2014 11:46 5,6 C 5,0 C 83 % 1015,3 hPa 0,0 l/m 0 min 0 min 123 W/m 20,9 km/h (4 Bft)
26.11.2014 11:48 5,6 C 5,0 C 83 % 1015,2 hPa 0,0 l/m 0 min 0 min 125 W/m 18,8 km/h (3 Bft)
26.11.2014 11:50 5,6 C 5,0 C 84 % 1015,1 hPa 0,0 l/m 0 min 0 min 124 W/m 25,1 km/h (4 Bft)
26.11.2014 11:52 5,6 C 5,0 C 84 % 1015,1 hPa 0,0 l/m 0 min 0 min 126 W/m 31,4 km/h (5 Bft)
26.11.2014 11:54 5,6 C 5,0 C 84 % 1015,1 hPa 0,0 l/m 0 min 0 min 128 W/m 33,5 km/h (5 Bft)
26.11.2014 11:56 5,7 C 5,0 C 84 % 1015,1 hPa 0,0 l/m 0 min 0 min 130 W/m 27,2 km/h (4 Bft)
26.11.2014 11:58 5,7 C 5,0 C 84 % 1015,1 hPa 0,0 l/m 0 min 0 min 130 W/m 31,4 km/h (5 Bft)
26.11.2014 12:00 5,7 C 5,0 C 84 % 1015,1 hPa 0,0 l/m 0 min 0 min 132 W/m 25,1 km/h (4 Bft)
26.11.2014 12:02 5,7 C 5,0 C 84 % 1015,0 hPa 0,0 l/m 0 min 0 min 133 W/m 20,9 km/h (4 Bft)
26.11.2014 12:05 5,7 C 5,0 C 84 % 1015,1 hPa 0,0 l/m 0 min 0 min 134 W/m 23,0 km/h (4 Bft)
26.11.2014 12:06 5,7 C 5,0 C 84 % 1015,1 hPa 0,0 l/m 0 min 0 min 134 W/m 27,2 km/h (4 Bft)
26.11.2014 12:08 5,7 C 5,0 C 84 % 1015,0 hPa 0,0 l/m 0 min 0 min 134 W/m 35,6 km/h (5 Bft)
26.11.2014 12:10 5,7 C 5,0 C 84 % 1015,0 hPa 0,0 l/m 0 min 0 min 133 W/m 29,3 km/h (5 Bft)
26.11.2014 12:12 5,8 C 5,0 C 84 % 1015,0 hPa 0,0 l/m 0 min 0 min 131 W/m 27,2 km/h (4 Bft)
26.11.2014 12:14 5,8 C 5,0 C 84 % 1015,0 hPa 0,0 l/m 0 min 0 min 129 W/m 25,1 km/h (4 Bft)
26.11.2014 12:16 5,8 C 5,0 C 84 % 1014,9 hPa 0,0 l/m 0 min 0 min 127 W/m 25,1 km/h (4 Bft)
26.11.2014 12:18 5,8 C 5,0 C 84 % 1014,9 hPa 0,0 l/m 0 min 0 min 126 W/m 27,2 km/h (4 Bft)
26.11.2014 12:20 5,8 C 5,0 C 84 % 1014,9 hPa 0,0 l/m 0 min 0 min 123 W/m 29,3 km/h (5 Bft)
26.11.2014 12:22 5,8 C 5,0 C 84 % 1014,9 hPa 0,0 l/m 0 min 0 min 122 W/m 20,9 km/h (4 Bft)
26.11.2014 12:24 5,9 C 5,0 C 84 % 1014,9 hPa 0,0 l/m 0 min 0 min 121 W/m 25,1 km/h (4 Bft)
26.11.2014 12:26 5,9 C 5,0 C 84 % 1014,8 hPa 0,0 l/m 0 min 0 min 120 W/m 29,3 km/h (5 Bft)
26.11.2014 12:28 5,9 C 5,0 C 84 % 1014,8 hPa 0,0 l/m 0 min 0 min 118 W/m 23,0 km/h (4 Bft)
26.11.2014 12:30 5,9 C 5,0 C 84 % 1014,8 hPa 0,0 l/m 0 min 0 min 115 W/m 18,8 km/h (3 Bft)
26.11.2014 12:32 5,9 C 5,0 C 84 % 1014,9 hPa 0,0 l/m 0 min 0 min 112 W/m 23,0 km/h (4 Bft)
26.11.2014 12:34 5,9 C 5,0 C 84 % 1014,8 hPa 0,0 l/m 0 min 0 min 109 W/m 20,9 km/h (4 Bft)
26.11.2014 12:36 5,9 C 5,0 C 84 % 1014,8 hPa 0,0 l/m 0 min 0 min 105 W/m 25,1 km/h (4 Bft)
26.11.2014 12:38 5,9 C 5,0 C 84 % 1014,8 hPa 0,0 l/m 0 min 0 min 101 W/m 23,0 km/h (4 Bft)
26.11.2014 12:40 5,9 C 5,6 C 84 % 1014,7 hPa 0,0 l/m 0 min 0 min 99 W/m 23,0 km/h (4 Bft)
26.11.2014 12:42 6,0 C 5,6 C 84 % 1014,7 hPa 0,0 l/m 0 min 0 min 97 W/m 31,4 km/h (5 Bft)
26.11.2014 12:44 5,9 C 5,6 C 84 % 1014,7 hPa 0,0 l/m 0 min 0 min 97 W/m 18,8 km/h (3 Bft)
26.11.2014 12:46 6,0 C 5,6 C 84 % 1014,7 hPa 0,0 l/m 0 min 0 min 96 W/m 20,9 km/h (4 Bft)
26.11.2014 12:48 6,0 C 5,6 C 84 % 1014,6 hPa 0,0 l/m 0 min 0 min 95 W/m 25,1 km/h (4 Bft)
26.11.2014 12:50 6,1 C 5,6 C 84 % 1014,7 hPa 0,0 l/m 0 min 0 min 95 W/m 23,0 km/h (4 Bft)
26.11.2014 12:52 6,1 C 5,6 C 84 % 1014,6 hPa 0,0 l/m 0 min 0 min 94 W/m 23,0 km/h (4 Bft)
26.11.2014 12:54 6,1 C 5,6 C 84 % 1014,6 hPa 0,0 l/m 0 min 0 min 93 W/m 23,0 km/h (4 Bft)
26.11.2014 12:56 6,1 C 5,6 C 84 % 1014,6 hPa 0,0 l/m 0 min 0 min 93 W/m 27,2 km/h (4 Bft)
26.11.2014 12:58 6,1 C 5,6 C 84 % 1014,6 hPa 0,0 l/m 0 min 0 min 93 W/m 31,4 km/h (5 Bft)
26.11.2014 13:00 6,1 C 5,6 C 84 % 1014,5 hPa 0,0 l/m 0 min 0 min 91 W/m 35,6 km/h (5 Bft)
26.11.2014 13:02 6,1 C 5,6 C 84 % 1014,5 hPa 0,0 l/m 0 min 0 min 91 W/m 23,0 km/h (4 Bft)
26.11.2014 13:04 6,2 C 5,6 C 84 % 1014,5 hPa 0,0 l/m 0 min 0 min 89 W/m 31,4 km/h (5 Bft)
26.11.2014 13:06 6,2 C 5,6 C 84 % 1014,5 hPa 0,0 l/m 0 min 0 min 88 W/m 27,2 km/h (4 Bft)
26.11.2014 13:08 6,2 C 5,6 C 84 % 1014,5 hPa 0,0 l/m 0 min 0 min 86 W/m 25,1 km/h (4 Bft)
26.11.2014 13:10 6,2 C 5,6 C 84 % 1014,5 hPa 0,0 l/m 0 min 0 min 84 W/m 27,2 km/h (4 Bft)
26.11.2014 13:12 6,2 C 5,6 C 83 % 1014,4 hPa 0,0 l/m 0 min 0 min 84 W/m 27,2 km/h (4 Bft)
26.11.2014 13:14 6,2 C 5,6 C 83 % 1014,4 hPa 0,0 l/m 0 min 0 min 86 W/m 35,6 km/h (5 Bft)
26.11.2014 13:16 6,2 C 5,6 C 83 % 1014,4 hPa 0,0 l/m 0 min 0 min 87 W/m 20,9 km/h (4 Bft)
26.11.2014 13:18 6,2 C 5,6 C 83 % 1014,4 hPa 0,0 l/m 0 min 0 min 88 W/m 27,2 km/h (4 Bft)
26.11.2014 13:20 6,2 C 5,6 C 83 % 1014,3 hPa 0,0 l/m 0 min 0 min 88 W/m 25,1 km/h (4 Bft)
26.11.2014 13:22 6,2 C 5,6 C 83 % 1014,4 hPa 0,0 l/m 0 min 0 min 89 W/m 23,0 km/h (4 Bft)
26.11.2014 13:24 6,2 C 5,6 C 83 % 1014,3 hPa 0,0 l/m 0 min 0 min 90 W/m 25,1 km/h (4 Bft)
26.11.2014 13:26 6,2 C 5,6 C 83 % 1014,3 hPa 0,0 l/m 0 min 0 min 91 W/m 31,4 km/h (5 Bft)
26.11.2014 13:28 6,2 C 5,6 C 83 % 1014,2 hPa 0,0 l/m 0 min 0 min 94 W/m 29,3 km/h (5 Bft)
26.11.2014 13:30 6,2 C 5,6 C 83 % 1014,2 hPa 0,0 l/m 0 min 0 min 95 W/m 29,3 km/h (5 Bft)
26.11.2014 13:32 6,2 C 5,6 C 83 % 1014,2 hPa 0,0 l/m 0 min 0 min 97 W/m 33,5 km/h (5 Bft)
26.11.2014 13:34 6,2 C 5,6 C 83 % 1014,2 hPa 0,0 l/m 0 min 0 min 98 W/m 33,5 km/h (5 Bft)
26.11.2014 13:36 6,2 C 5,6 C 83 % 1014,1 hPa 0,0 l/m 0 min 0 min 99 W/m 25,1 km/h (4 Bft)
26.11.2014 13:38 6,2 C 5,6 C 83 % 1014,2 hPa 0,0 l/m 0 min 0 min 102 W/m 23,0 km/h (4 Bft)
26.11.2014 13:40 6,2 C 5,6 C 83 % 1014,2 hPa 0,0 l/m 0 min 0 min 104 W/m 27,2 km/h (4 Bft)
26.11.2014 13:42 6,2 C 5,6 C 83 % 1014,2 hPa 0,0 l/m 0 min 0 min 108 W/m 33,5 km/h (5 Bft)
26.11.2014 13:44 6,3 C 5,6 C 83 % 1014,2 hPa 0,0 l/m 0 min 0 min 110 W/m 35,6 km/h (5 Bft)
26.11.2014 13:46 6,3 C 5,6 C 83 % 1014,1 hPa 0,0 l/m 0 min 0 min 111 W/m 31,4 km/h (5 Bft)
26.11.2014 13:48 6,3 C 5,6 C 83 % 1014,2 hPa 0,0 l/m 0 min 0 min 111 W/m 27,2 km/h (4 Bft)
26.11.2014 13:50 6,3 C 5,6 C 83 % 1014,2 hPa 0,0 l/m 0 min 0 min 111 W/m 29,3 km/h (5 Bft)
26.11.2014 13:52 6,3 C 5,6 C 83 % 1014,1 hPa 0,0 l/m 0 min 0 min 110 W/m 20,9 km/h (4 Bft)
26.11.2014 13:54 6,3 C 5,6 C 83 % 1014,0 hPa 0,0 l/m 0 min 0 min 109 W/m 33,5 km/h (5 Bft)
26.11.2014 13:56 6,3 C 5,0 C 83 % 1014,1 hPa 0,0 l/m 0 min 0 min 108 W/m 31,4 km/h (5 Bft)
26.11.2014 13:58 6,3 C 5,0 C 83 % 1014,0 hPa 0,0 l/m 0 min 0 min 106 W/m 29,3 km/h (5 Bft)
26.11.2014 14:00 6,3 C 5,0 C 83 % 1014,0 hPa 0,0 l/m 0 min 0 min 104 W/m 27,2 km/h (4 Bft)
26.11.2014 14:02 6,3 C 5,0 C 83 % 1014,0 hPa 0,0 l/m 0 min 0 min 104 W/m 33,5 km/h (5 Bft)
26.11.2014 14:04 6,3 C 5,0 C 83 % 1013,9 hPa 0,0 l/m 0 min 0 min 102 W/m 29,3 km/h (5 Bft)
26.11.2014 14:06 6,3 C 5,0 C 83 % 1013,9 hPa 0,0 l/m 0 min 0 min 102 W/m 23,0 km/h (4 Bft)
26.11.2014 14:08 6,3 C 5,6 C 83 % 1013,9 hPa 0,0 l/m 0 min 0 min 102 W/m 27,2 km/h (4 Bft)
26.11.2014 14:10 6,3 C 5,6 C 83 % 1013,7 hPa 0,0 l/m 0 min 0 min 104 W/m 25,1 km/h (4 Bft)
26.11.2014 14:12 6,3 C 5,6 C 83 % 1013,7 hPa 0,0 l/m 0 min 0 min 104 W/m 29,3 km/h (5 Bft)
26.11.2014 14:14 6,3 C 5,6 C 83 % 1013,8 hPa 0,0 l/m 0 min 0 min 104 W/m 29,3 km/h (5 Bft)
26.11.2014 14:16 6,3 C 5,6 C 83 % 1013,7 hPa 0,0 l/m 0 min 0 min 104 W/m 31,4 km/h (5 Bft)
26.11.2014 14:18 6,3 C 5,6 C 83 % 1013,7 hPa 0,0 l/m 0 min 0 min 105 W/m 27,2 km/h (4 Bft)
26.11.2014 14:20 6,3 C 5,6 C 83 % 1013,7 hPa 0,0 l/m 0 min 0 min 106 W/m 25,1 km/h (4 Bft)
26.11.2014 14:22 6,3 C 5,6 C 83 % 1013,7 hPa 0,0 l/m 0 min 0 min 108 W/m 16,7 km/h (3 Bft)
26.11.2014 14:24 6,3 C 5,6 C 83 % 1013,7 hPa 0,0 l/m 0 min 0 min 110 W/m 29,3 km/h (5 Bft)
26.11.2014 14:26 6,4 C 5,6 C 83 % 1013,7 hPa 0,0 l/m 0 min 0 min 113 W/m 25,1 km/h (4 Bft)
26.11.2014 14:28 6,4 C 5,6 C 83 % 1013,7 hPa 0,0 l/m 0 min 0 min 114 W/m 16,7 km/h (3 Bft)
26.11.2014 14:30 6,4 C 5,6 C 83 % 1013,7 hPa 0,0 l/m 0 min 0 min 116 W/m 31,4 km/h (5 Bft)
26.11.2014 14:32 6,4 C 5,6 C 84 % 1013,7 hPa 0,0 l/m 0 min 0 min 115 W/m 31,4 km/h (5 Bft)
26.11.2014 14:34 6,4 C 5,6 C 84 % 1013,7 hPa 0,0 l/m 0 min 0 min 114 W/m 27,2 km/h (4 Bft)
26.11.2014 14:36 6,4 C 5,6 C 84 % 1013,7 hPa 0,0 l/m 0 min 0 min 114 W/m 20,9 km/h (4 Bft)
26.11.2014 14:38 6,4 C 5,6 C 84 % 1013,7 hPa 0,0 l/m 0 min 0 min 113 W/m 25,1 km/h (4 Bft)
26.11.2014 14:40 6,4 C 5,6 C 84 % 1013,6 hPa 0,0 l/m 2 min 0 min 113 W/m 31,4 km/h (5 Bft)
26.11.2014 14:42 6,4 C 5,6 C 84 % 1013,7 hPa 0,0 l/m 2 min 0 min 111 W/m 20,9 km/h (4 Bft)
26.11.2014 14:44 6,4 C 5,6 C 84 % 1013,6 hPa 0,0 l/m 2 min 0 min 110 W/m 25,1 km/h (4 Bft)
26.11.2014 14:46 6,4 C 5,6 C 84 % 1013,7 hPa 0,0 l/m 2 min 0 min 110 W/m 20,9 km/h (4 Bft)
26.11.2014 14:48 6,5 C 5,6 C 84 % 1013,6 hPa 0,0 l/m 2 min 0 min 111 W/m 27,2 km/h (4 Bft)
26.11.2014 14:50 6,5 C 5,6 C 84 % 1013,6 hPa 0,0 l/m 2 min 0 min 108 W/m 29,3 km/h (5 Bft)
26.11.2014 14:52 6,5 C 5,6 C 84 % 1013,5 hPa 0,0 l/m 2 min 0 min 106 W/m 33,5 km/h (5 Bft)
26.11.2014 14:54 6,5 C 5,6 C 83 % 1013,6 hPa 0,0 l/m 2 min 0 min 108 W/m 31,4 km/h (5 Bft)
26.11.2014 14:56 6,5 C 5,6 C 83 % 1013,6 hPa 0,0 l/m 2 min 0 min 108 W/m 33,5 km/h (5 Bft)
26.11.2014 14:58 6,5 C 5,6 C 83 % 1013,6 hPa 0,0 l/m 2 min 0 min 106 W/m 27,2 km/h (4 Bft)
26.11.2014 15:00 6,5 C 5,6 C 83 % 1013,6 hPa 0,0 l/m 2 min 0 min 104 W/m 33,5 km/h (5 Bft)
26.11.2014 15:02 6,5 C 5,6 C 83 % 1013,6 hPa 0,0 l/m 2 min 0 min 103 W/m 23,0 km/h (4 Bft)
26.11.2014 15:04 6,5 C 5,6 C 83 % 1013,5 hPa 0,0 l/m 2 min 0 min 103 W/m 31,4 km/h (5 Bft)
26.11.2014 15:06 6,5 C 5,6 C 83 % 1013,5 hPa 0,0 l/m 2 min 0 min 100 W/m 29,3 km/h (5 Bft)
26.11.2014 15:08 6,4 C 5,6 C 83 % 1013,5 hPa 0,0 l/m 2 min 0 min 96 W/m 33,5 km/h (5 Bft)
26.11.2014 15:10 6,4 C 5,6 C 83 % 1013,5 hPa 0,0 l/m 2 min 0 min 92 W/m 29,3 km/h (5 Bft)
26.11.2014 15:12 6,4 C 5,6 C 83 % 1013,5 hPa 0,0 l/m 2 min 0 min 85 W/m 20,9 km/h (4 Bft)
26.11.2014 15:14 6,4 C 5,6 C 83 % 1013,5 hPa 0,0 l/m 0 min 0 min 77 W/m 31,4 km/h (5 Bft)
26.11.2014 15:16 6,4 C 5,6 C 83 % 1013,5 hPa 0,0 l/m 0 min 0 min 68 W/m 31,4 km/h (5 Bft)
26.11.2014 15:18 6,4 C 5,0 C 83 % 1013,6 hPa 0,0 l/m 0 min 0 min 63 W/m 33,5 km/h (5 Bft)
26.11.2014 15:20 6,4 C 5,0 C 83 % 1013,5 hPa 0,0 l/m 0 min 0 min 56 W/m 27,2 km/h (4 Bft)
26.11.2014 15:22 6,4 C 5,0 C 84 % 1013,4 hPa 0,0 l/m 0 min 0 min 52 W/m 27,2 km/h (4 Bft)
26.11.2014 15:24 6,3 C 5,0 C 84 % 1013,5 hPa 0,0 l/m 0 min 0 min 48 W/m 20,9 km/h (4 Bft)
26.11.2014 15:26 6,3 C 5,0 C 84 % 1013,5 hPa 0,0 l/m 0 min 0 min 46 W/m 23,0 km/h (4 Bft)
26.11.2014 15:28 6,3 C 5,0 C 84 % 1013,5 hPa 0,0 l/m 0 min 0 min 44 W/m 23,0 km/h (4 Bft)
26.11.2014 15:30 6,2 C 5,0 C 84 % 1013,4 hPa 0,0 l/m 0 min 0 min 43 W/m 16,7 km/h (3 Bft)
26.11.2014 15:32 6,2 C 5,0 C 85 % 1013,3 hPa 0,0 l/m 0 min 0 min 41 W/m 35,6 km/h (5 Bft)
26.11.2014 15:34 6,2 C 5,0 C 85 % 1013,5 hPa 0,0 l/m 0 min 0 min 39 W/m 29,3 km/h (5 Bft)
26.11.2014 15:36 6,2 C 5,0 C 85 % 1013,3 hPa 0,0 l/m 0 min 0 min 35 W/m 31,4 km/h (5 Bft)
26.11.2014 15:38 6,2 C 4,4 C 86 % 1013,4 hPa 0,0 l/m 0 min 0 min 34 W/m 29,3 km/h (5 Bft)
26.11.2014 15:40 6,1 C 4,4 C 86 % 1013,4 hPa 0,0 l/m 0 min 0 min 36 W/m 29,3 km/h (5 Bft)
26.11.2014 15:42 6,1 C 4,4 C 86 % 1013,3 hPa 0,0 l/m 0 min 0 min 38 W/m 20,9 km/h (4 Bft)
26.11.2014 15:44 6,1 C 4,4 C 86 % 1013,3 hPa 0,0 l/m 0 min 0 min 39 W/m 35,6 km/h (5 Bft)
26.11.2014 15:46 6,1 C 4,4 C 87 % 1013,3 hPa 0,0 l/m 0 min 0 min 39 W/m 23,0 km/h (4 Bft)
26.11.2014 15:48 6,0 C 4,4 C 87 % 1013,3 hPa 0,0 l/m 0 min 0 min 40 W/m 25,1 km/h (4 Bft)
26.11.2014 15:50 6,0 C 4,4 C 87 % 1013,3 hPa 0,0 l/m 0 min 0 min 40 W/m 23,0 km/h (4 Bft)
26.11.2014 15:52 5,9 C 4,4 C 87 % 1013,2 hPa 0,0 l/m 0 min 0 min 39 W/m 23,0 km/h (4 Bft)
26.11.2014 15:54 6,0 C 4,4 C 87 % 1013,3 hPa 0,0 l/m 0 min 0 min 39 W/m 18,8 km/h (3 Bft)
26.11.2014 15:56 5,9 C 4,4 C 88 % 1013,2 hPa 0,0 l/m 0 min 0 min 36 W/m 25,1 km/h (4 Bft)
26.11.2014 15:58 5,9 C 4,4 C 88 % 1013,2 hPa 0,0 l/m 0 min 0 min 30 W/m 23,0 km/h (4 Bft)
26.11.2014 16:00 5,9 C 3,9 C 88 % 1013,2 hPa 0,0 l/m 0 min 2 min 24 W/m 35,6 km/h (5 Bft)
26.11.2014 16:02 5,8 C 3,9 C 88 % 1013,2 hPa 0,0 l/m 0 min 0 min 19 W/m 37,7 km/h (5 Bft)
26.11.2014 16:04 5,8 C 3,9 C 88 % 1013,2 hPa 0,0 l/m 0 min 0 min 16 W/m 31,4 km/h (5 Bft)
26.11.2014 16:06 5,7 C 3,9 C 88 % 1013,3 hPa 0,0 l/m 0 min 0 min 12 W/m 31,4 km/h (5 Bft)
26.11.2014 16:08 5,7 C 3,9 C 88 % 1013,2 hPa 0,0 l/m 0 min 0 min 12 W/m 27,2 km/h (4 Bft)
26.11.2014 16:10 5,7 C 3,9 C 88 % 1013,2 hPa 0,0 l/m 0 min 0 min 10 W/m 29,3 km/h (5 Bft)
26.11.2014 16:12 5,7 C 3,9 C 88 % 1013,2 hPa 0,0 l/m 0 min 0 min 8 W/m 20,9 km/h (4 Bft)
26.11.2014 16:14 5,6 C 3,9 C 88 % 1013,2 hPa 0,0 l/m 0 min 0 min 6 W/m 35,6 km/h (5 Bft)
26.11.2014 16:16 5,6 C 3,9 C 88 % 1013,3 hPa 0,0 l/m 0 min 0 min 5 W/m 31,4 km/h (5 Bft)
26.11.2014 16:18 5,6 C 3,9 C 88 % 1013,1 hPa 0,0 l/m 0 min 0 min 3 W/m 31,4 km/h (5 Bft)
26.11.2014 16:20 5,6 C 3,9 C 88 % 1013,2 hPa 0,0 l/m 0 min 0 min 0 W/m 31,4 km/h (5 Bft)
26.11.2014 16:22 5,5 C 3,9 C 88 % 1013,2 hPa 0,0 l/m 0 min 0 min 0 W/m 33,5 km/h (5 Bft)
26.11.2014 16:24 5,5 C 3,9 C 88 % 1013,2 hPa 0,0 l/m 0 min 0 min 0 W/m 31,4 km/h (5 Bft)
26.11.2014 16:26 5,4 C 3,9 C 88 % 1013,1 hPa 0,0 l/m 0 min 0 min 0 W/m 27,2 km/h (4 Bft)
26.11.2014 16:28 5,4 C 3,9 C 88 % 1013,2 hPa 0,0 l/m 0 min 0 min 0 W/m 25,1 km/h (4 Bft)
26.11.2014 16:30 5,4 C 4,4 C 88 % 1013,2 hPa 0,0 l/m 0 min 0 min 0 W/m 27,2 km/h (4 Bft)
26.11.2014 16:32 5,4 C 4,4 C 89 % 1013,1 hPa 0,0 l/m 0 min 0 min 0 W/m 33,5 km/h (5 Bft)
26.11.2014 16:34 5,4 C 4,4 C 89 % 1013,1 hPa 0,0 l/m 0 min 0 min 0 W/m 25,1 km/h (4 Bft)
26.11.2014 16:36 5,4 C 4,4 C 89 % 1013,1 hPa 0,0 l/m 0 min 0 min 0 W/m 29,3 km/h (5 Bft)
26.11.2014 16:38 5,4 C 4,4 C 89 % 1013,1 hPa 0,0 l/m 0 min 0 min 0 W/m 16,7 km/h (3 Bft)
26.11.2014 16:40 5,4 C 4,4 C 89 % 1013,1 hPa 0,0 l/m 0 min 0 min 0 W/m 25,1 km/h (4 Bft)
26.11.2014 16:42 5,4 C 4,4 C 89 % 1013,1 hPa 0,0 l/m 0 min 0 min 0 W/m 27,2 km/h (4 Bft)
26.11.2014 16:44 5,4 C 4,4 C 89 % 1013,1 hPa 0,0 l/m 0 min 0 min 0 W/m 23,0 km/h (4 Bft)
26.11.2014 16:46 5,4 C 4,4 C 89 % 1013,1 hPa 0,0 l/m 0 min 0 min 0 W/m 31,4 km/h (5 Bft)
26.11.2014 16:48 5,4 C 4,4 C 89 % 1013,0 hPa 0,0 l/m 0 min 0 min 0 W/m 29,3 km/h (5 Bft)
26.11.2014 16:50 5,4 C 4,4 C 89 % 1013,0 hPa 0,0 l/m 0 min 0 min 0 W/m 27,2 km/h (4 Bft)
26.11.2014 16:52 5,4 C 4,4 C 89 % 1012,9 hPa 0,0 l/m 0 min 0 min 0 W/m 25,1 km/h (4 Bft)
26.11.2014 16:54 5,4 C 4,4 C 89 % 1012,9 hPa 0,0 l/m 0 min 0 min 0 W/m 29,3 km/h (5 Bft)
26.11.2014 16:56 5,4 C 4,4 C 89 % 1012,9 hPa 0,0 l/m 0 min 0 min 0 W/m 33,5 km/h (5 Bft)
26.11.2014 16:58 5,4 C 4,4 C 89 % 1012,9 hPa 0,0 l/m 0 min 0 min 0 W/m 31,4 km/h (5 Bft)
26.11.2014 17:00 5,4 C 4,4 C 89 % 1012,9 hPa 0,0 l/m 0 min 0 min 0 W/m 29,3 km/h (5 Bft)
26.11.2014 17:02 5,4 C 4,4 C 89 % 1013,0 hPa 0,0 l/m 0 min 0 min 0 W/m 25,1 km/h (4 Bft)
26.11.2014 17:04 5,4 C 4,4 C 89 % 1012,9 hPa 0,0 l/m 0 min 0 min 0 W/m 37,7 km/h (5 Bft)
26.11.2014 17:06 5,4 C 4,4 C 89 % 1013,0 hPa 0,0 l/m 0 min 0 min 0 W/m 25,1 km/h (4 Bft)
26.11.2014 17:08 5,4 C 4,4 C 89 % 1012,9 hPa 0,0 l/m 0 min 0 min 0 W/m 27,2 km/h (4 Bft)
26.11.2014 17:10 5,4 C 4,4 C 89 % 1012,9 hPa 0,0 l/m 0 min 2 min 0 W/m 31,4 km/h (5 Bft)
26.11.2014 17:12 5,4 C 4,4 C 89 % 1012,9 hPa 0,0 l/m 0 min 0 min 0 W/m 29,3 km/h (5 Bft)
26.11.2014 17:14 5,4 C 4,4 C 89 % 1012,8 hPa 0,0 l/m 0 min 0 min 0 W/m 33,5 km/h (5 Bft)
26.11.2014 17:16 5,4 C 3,9 C 89 % 1012,9 hPa 0,0 l/m 0 min 0 min 0 W/m 23,0 km/h (4 Bft)
26.11.2014 17:18 5,4 C 3,9 C 89 % 1012,9 hPa 0,0 l/m 0 min 0 min 0 W/m 18,8 km/h (3 Bft)
26.11.2014 17:20 5,4 C 3,9 C 89 % 1013,0 hPa 0,0 l/m 0 min 0 min 0 W/m 29,3 km/h (5 Bft)
26.11.2014 17:22 5,4 C 3,9 C 89 % 1012,9 hPa 0,0 l/m 0 min 0 min 0 W/m 23,0 km/h (4 Bft)
26.11.2014 17:24 5,3 C 3,9 C 89 % 1012,9 hPa 0,0 l/m 0 min 0 min 0 W/m 31,4 km/h (5 Bft)
26.11.2014 17:26 5,3 C 4,4 C 89 % 1012,9 hPa 0,0 l/m 0 min 0 min 0 W/m 33,5 km/h (5 Bft)
26.11.2014 17:28 5,3 C 4,4 C 89 % 1012,9 hPa 0,0 l/m 0 min 0 min 0 W/m 29,3 km/h (5 Bft)
26.11.2014 17:30 5,3 C 4,4 C 89 % 1012,8 hPa 0,0 l/m 0 min 0 min 0 W/m 20,9 km/h (4 Bft)
26.11.2014 17:32 5,3 C 4,4 C 89 % 1012,9 hPa 0,0 l/m 0 min 0 min 0 W/m 29,3 km/h (5 Bft)
26.11.2014 17:34 5,3 C 4,4 C 89 % 1012,9 hPa 0,0 l/m 0 min 0 min 0 W/m 31,4 km/h (5 Bft)
26.11.2014 17:36 5,3 C 4,4 C 89 % 1012,9 hPa 0,0 l/m 0 min 0 min 0 W/m 31,4 km/h (5 Bft)
26.11.2014 17:38 5,3 C 4,4 C 89 % 1012,9 hPa 0,0 l/m 0 min 0 min 0 W/m 29,3 km/h (5 Bft)
26.11.2014 17:40 5,3 C 4,4 C 89 % 1012,9 hPa 0,0 l/m 0 min 0 min 0 W/m 25,1 km/h (4 Bft)
26.11.2014 17:42 5,3 C 4,4 C 89 % 1012,9 hPa 0,0 l/m 0 min 0 min 0 W/m 27,2 km/h (4 Bft)
26.11.2014 17:44 5,3 C 4,4 C 89 % 1012,8 hPa 0,0 l/m 0 min 0 min 0 W/m 33,5 km/h (5 Bft)
26.11.2014 17:46 5,3 C 4,4 C 89 % 1012,8 hPa 0,0 l/m 0 min 0 min 0 W/m 33,5 km/h (5 Bft)
26.11.2014 17:48 5,3 C 4,4 C 89 % 1012,8 hPa 0,0 l/m 0 min 0 min 0 W/m 27,2 km/h (4 Bft)
26.11.2014 17:50 5,3 C 4,4 C 89 % 1012,7 hPa 0,0 l/m 0 min 0 min 0 W/m 27,2 km/h (4 Bft)
26.11.2014 17:52 5,3 C 4,4 C 89 % 1012,8 hPa 0,0 l/m 0 min 0 min 0 W/m 29,3 km/h (5 Bft)
26.11.2014 17:54 5,3 C 4,4 C 89 % 1012,7 hPa 0,0 l/m 0 min 0 min 0 W/m 29,3 km/h (5 Bft)
26.11.2014 17:56 5,3 C 4,4 C 89 % 1012,7 hPa 0,0 l/m 0 min 0 min 0 W/m 29,3 km/h (5 Bft)
26.11.2014 17:58 5,3 C 4,4 C 89 % 1012,7 hPa 0,0 l/m 0 min 0 min 0 W/m 23,0 km/h (4 Bft)
26.11.2014 18:00 5,3 C 4,4 C 89 % 1012,8 hPa 0,0 l/m 0 min 0 min 0 W/m 23,0 km/h (4 Bft)
26.11.2014 18:02 5,3 C 4,4 C 89 % 1012,7 hPa 0,0 l/m 0 min 0 min 0 W/m 37,7 km/h (5 Bft)
26.11.2014 18:05 5,3 C 4,4 C 89 % 1012,7 hPa 0,0 l/m 0 min 0 min 0 W/m 29,3 km/h (5 Bft)
26.11.2014 18:06 5,3 C 4,4 C 89 % 1012,7 hPa 0,0 l/m 0 min 0 min 0 W/m 29,3 km/h (5 Bft)
26.11.2014 18:08 5,3 C 4,4 C 89 % 1012,7 hPa 0,0 l/m 0 min 0 min 0 W/m 33,5 km/h (5 Bft)
26.11.2014 18:10 5,3 C 4,4 C 89 % 1012,8 hPa 0,0 l/m 0 min 0 min 0 W/m 27,2 km/h (4 Bft)
26.11.2014 18:12 5,3 C 4,4 C 89 % 1012,7 hPa 0,0 l/m 0 min 0 min 0 W/m 31,4 km/h (5 Bft)
26.11.2014 18:14 5,3 C 4,4 C 89 % 1012,7 hPa 0,0 l/m 0 min 0 min 0 W/m 25,1 km/h (4 Bft)
26.11.2014 18:16 5,3 C 4,4 C 89 % 1012,7 hPa 0,0 l/m 0 min 0 min 0 W/m 25,1 km/h (4 Bft)
26.11.2014 18:18 5,3 C 4,4 C 89 % 1012,7 hPa 0,0 l/m 0 min 0 min 0 W/m 29,3 km/h (5 Bft)
26.11.2014 18:20 5,3 C 4,4 C 89 % 1012,7 hPa 0,0 l/m 0 min 0 min 0 W/m 25,1 km/h (4 Bft)
26.11.2014 18:22 5,3 C 4,4 C 89 % 1012,7 hPa 0,0 l/m 0 min 0 min 0 W/m 27,2 km/h (4 Bft)
26.11.2014 18:24 5,3 C 4,4 C 89 % 1012,7 hPa 0,0 l/m 0 min 0 min 0 W/m 29,3 km/h (5 Bft)
26.11.2014 18:26 5,3 C 4,4 C 89 % 1012,7 hPa 0,0 l/m 0 min 0 min 0 W/m 25,1 km/h (4 Bft)
26.11.2014 18:28 5,3 C 4,4 C 89 % 1012,7 hPa 0,0 l/m 0 min 0 min 0 W/m 20,9 km/h (4 Bft)
26.11.2014 18:30 5,3 C 4,4 C 89 % 1012,7 hPa 0,0 l/m 0 min 0 min 0 W/m 25,1 km/h (4 Bft)
26.11.2014 18:32 5,3 C 4,4 C 89 % 1012,7 hPa 0,0 l/m 0 min 0 min 0 W/m 31,4 km/h (5 Bft)
26.11.2014 18:34 5,4 C 4,4 C 89 % 1012,7 hPa 0,0 l/m 0 min 0 min 0 W/m 31,4 km/h (5 Bft)
26.11.2014 18:36 5,4 C 4,4 C 89 % 1012,7 hPa 0,0 l/m 0 min 0 min 0 W/m 20,9 km/h (4 Bft)
26.11.2014 18:38 5,4 C 4,4 C 89 % 1012,7 hPa 0,0 l/m 0 min 0 min 0 W/m 31,4 km/h (5 Bft)
26.11.2014 18:40 5,4 C 4,4 C 89 % 1012,6 hPa 0,0 l/m 0 min 0 min 0 W/m 23,0 km/h (4 Bft)
26.11.2014 18:42 5,4 C 4,4 C 89 % 1012,6 hPa 0,0 l/m 0 min 0 min 0 W/m 23,0 km/h (4 Bft)
26.11.2014 18:44 5,4 C 4,4 C 89 % 1012,6 hPa 0,0 l/m 0 min 0 min 0 W/m 25,1 km/h (4 Bft)
26.11.2014 18:46 5,4 C 4,4 C 89 % 1012,7 hPa 0,0 l/m 0 min 0 min 0 W/m 25,1 km/h (4 Bft)
26.11.2014 18:48 5,4 C 4,4 C 89 % 1012,6 hPa 0,0 l/m 0 min 0 min 0 W/m 35,6 km/h (5 Bft)
26.11.2014 18:50 5,4 C 4,4 C 89 % 1012,7 hPa 0,0 l/m 0 min 0 min 0 W/m 25,1 km/h (4 Bft)
26.11.2014 18:52 5,4 C 4,4 C 89 % 1012,6 hPa 0,0 l/m 0 min 0 min 0 W/m 27,2 km/h (4 Bft)
26.11.2014 18:54 5,4 C 4,4 C 89 % 1012,7 hPa 0,0 l/m 0 min 0 min 0 W/m 25,1 km/h (4 Bft)
26.11.2014 18:56 5,4 C 4,4 C 89 % 1012,6 hPa 0,0 l/m 0 min 0 min 0 W/m 29,3 km/h (5 Bft)
26.11.2014 18:58 5,4 C 4,4 C 89 % 1012,7 hPa 0,0 l/m 0 min 0 min 0 W/m 29,3 km/h (5 Bft)
26.11.2014 19:00 5,4 C 4,4 C 88 % 1012,7 hPa 0,0 l/m 0 min 0 min 0 W/m 20,9 km/h (4 Bft)
26.11.2014 19:02 5,4 C 4,4 C 88 % 1012,7 hPa 0,0 l/m 0 min 0 min 0 W/m 18,8 km/h (3 Bft)
26.11.2014 19:04 5,4 C 4,4 C 88 % 1012,6 hPa 0,0 l/m 0 min 0 min 0 W/m 31,4 km/h (5 Bft)
26.11.2014 19:06 5,4 C 4,4 C 88 % 1012,7 hPa 0,0 l/m 0 min 0 min 0 W/m 20,9 km/h (4 Bft)
26.11.2014 19:08 5,4 C 4,4 C 88 % 1012,6 hPa 0,0 l/m 0 min 0 min 0 W/m 31,4 km/h (5 Bft)
26.11.2014 19:10 5,5 C 4,4 C 88 % 1012,6 hPa 0,0 l/m 0 min 0 min 0 W/m 29,3 km/h (5 Bft)
26.11.2014 19:12 5,5 C 4,4 C 88 % 1012,5 hPa 0,0 l/m 0 min 2 min 0 W/m 29,3 km/h (5 Bft)
26.11.2014 19:14 5,5 C 4,4 C 88 % 1012,6 hPa 0,0 l/m 0 min 2 min 0 W/m 25,1 km/h (4 Bft)
26.11.2014 19:16 5,5 C 4,4 C 88 % 1012,6 hPa 0,0 l/m 0 min 0 min 0 W/m 20,9 km/h (4 Bft)
26.11.2014 19:18 5,5 C 4,4 C 88 % 1012,6 hPa 0,0 l/m 0 min 0 min 0 W/m 18,8 km/h (3 Bft)
26.11.2014 19:20 5,5 C 4,4 C 88 % 1012,6 hPa 0,0 l/m 0 min 0 min 0 W/m 23,0 km/h (4 Bft)
26.11.2014 19:22 5,5 C 4,4 C 88 % 1012,6 hPa 0,0 l/m 0 min 0 min 0 W/m 25,1 km/h (4 Bft)
26.11.2014 19:24 5,5 C 4,4 C 88 % 1012,6 hPa 0,0 l/m 0 min 0 min 0 W/m 25,1 km/h (4 Bft)
26.11.2014 19:26 5,5 C 4,4 C 88 % 1012,6 hPa 0,0 l/m 0 min 0 min 0 W/m 23,0 km/h (4 Bft)
26.11.2014 19:28 5,5 C 4,4 C 88 % 1012,6 hPa 0,0 l/m 0 min 0 min 0 W/m 31,4 km/h (5 Bft)
26.11.2014 19:30 5,6 C 4,4 C 88 % 1012,6 hPa 0,0 l/m 0 min 0 min 0 W/m 27,2 km/h (4 Bft)
26.11.2014 19:32 5,6 C 4,4 C 88 % 1012,6 hPa 0,0 l/m 0 min 0 min 0 W/m 25,1 km/h (4 Bft)
26.11.2014 19:34 5,6 C 4,4 C 88 % 1012,6 hPa 0,0 l/m 0 min 0 min 0 W/m 29,3 km/h (5 Bft)
26.11.2014 19:36 5,6 C 4,4 C 88 % 1012,6 hPa 0,0 l/m 0 min 0 min 0 W/m 29,3 km/h (5 Bft)
26.11.2014 19:38 5,6 C 4,4 C 88 % 1012,6 hPa 0,0 l/m 0 min 0 min 0 W/m 25,1 km/h (4 Bft)
26.11.2014 19:40 5,6 C 4,4 C 88 % 1012,5 hPa 0,0 l/m 0 min 0 min 0 W/m 31,4 km/h (5 Bft)
26.11.2014 19:42 5,6 C 4,4 C 88 % 1012,5 hPa 0,0 l/m 0 min 0 min 0 W/m 29,3 km/h (5 Bft)
26.11.2014 19:44 5,6 C 4,4 C 88 % 1012,5 hPa 0,0 l/m 0 min 0 min 0 W/m 23,0 km/h (4 Bft)
26.11.2014 19:46 5,6 C 4,4 C 88 % 1012,6 hPa 0,0 l/m 0 min 0 min 0 W/m 23,0 km/h (4 Bft)
26.11.2014 19:48 5,6 C 4,4 C 88 % 1012,6 hPa 0,0 l/m 0 min 0 min 0 W/m 33,5 km/h (5 Bft)
26.11.2014 19:50 5,6 C 4,4 C 88 % 1012,6 hPa 0,0 l/m 0 min 0 min 0 W/m 35,6 km/h (5 Bft)
26.11.2014 19:52 5,6 C 4,4 C 88 % 1012,5 hPa 0,0 l/m 0 min 0 min 0 W/m 29,3 km/h (5 Bft)
26.11.2014 19:54 5,6 C 4,4 C 88 % 1012,5 hPa 0,0 l/m 0 min 0 min 0 W/m 37,7 km/h (5 Bft)
26.11.2014 19:56 5,6 C 4,4 C 88 % 1012,5 hPa 0,0 l/m 0 min 0 min 0 W/m 29,3 km/h (5 Bft)
26.11.2014 19:58 5,6 C 4,4 C 87 % 1012,5 hPa 0,0 l/m 0 min 0 min 0 W/m 35,6 km/h (5 Bft)
26.11.2014 20:00 5,6 C 4,4 C 87 % 1012,6 hPa 0,0 l/m 0 min 0 min 0 W/m 35,6 km/h (5 Bft)
26.11.2014 20:02 5,7 C 4,4 C 87 % 1012,5 hPa 0,0 l/m 0 min 0 min 0 W/m 37,7 km/h (5 Bft)
26.11.2014 20:04 5,7 C 4,4 C 87 % 1012,6 hPa 0,0 l/m 0 min 0 min 0 W/m 29,3 km/h (5 Bft)
26.11.2014 20:06 5,7 C 4,4 C 87 % 1012,6 hPa 0,0 l/m 0 min 0 min 0 W/m 33,5 km/h (5 Bft)
26.11.2014 20:08 5,7 C 4,4 C 87 % 1012,6 hPa 0,0 l/m 0 min 0 min 0 W/m 31,4 km/h (5 Bft)
26.11.2014 20:10 5,7 C 4,4 C 87 % 1012,5 hPa 0,0 l/m 0 min 0 min 0 W/m 25,1 km/h (4 Bft)
26.11.2014 20:12 5,7 C 4,4 C 87 % 1012,5 hPa 0,0 l/m 0 min 0 min 0 W/m 33,5 km/h (5 Bft)
26.11.2014 20:14 5,7 C 4,4 C 87 % 1012,5 hPa 0,0 l/m 0 min 0 min 0 W/m 33,5 km/h (5 Bft)
26.11.2014 20:16 5,7 C 4,4 C 87 % 1012,5 hPa 0,0 l/m 0 min 0 min 0 W/m 23,0 km/h (4 Bft)
26.11.2014 20:18 5,7 C 4,4 C 87 % 1012,5 hPa 0,0 l/m 0 min 0 min 0 W/m 37,7 km/h (5 Bft)
26.11.2014 20:20 5,7 C 4,4 C 87 % 1012,5 hPa 0,0 l/m 0 min 0 min 0 W/m 39,7 km/h (6 Bft)
26.11.2014 20:22 5,7 C 4,4 C 87 % 1012,4 hPa 0,0 l/m 0 min 0 min 0 W/m 31,4 km/h (5 Bft)
26.11.2014 20:24 5,7 C 4,4 C 87 % 1012,4 hPa 0,0 l/m 0 min 0 min 0 W/m 33,5 km/h (5 Bft)
26.11.2014 20:26 5,7 C 4,4 C 87 % 1012,4 hPa 0,0 l/m 0 min 0 min 0 W/m 25,1 km/h (4 Bft)
26.11.2014 20:28 5,7 C 4,4 C 87 % 1012,4 hPa 0,0 l/m 0 min 0 min 0 W/m 27,2 km/h (4 Bft)
26.11.2014 20:30 5,7 C 4,4 C 87 % 1012,4 hPa 0,0 l/m 0 min 0 min 0 W/m 33,5 km/h (5 Bft)
26.11.2014 20:32 5,7 C 4,4 C 87 % 1012,4 hPa 0,0 l/m 0 min 0 min 0 W/m 33,5 km/h (5 Bft)
26.11.2014 20:34 5,7 C 4,4 C 87 % 1012,3 hPa 0,0 l/m 0 min 0 min 0 W/m 35,6 km/h (5 Bft)
26.11.2014 20:36 5,7 C 4,4 C 87 % 1012,3 hPa 0,0 l/m 0 min 0 min 0 W/m 27,2 km/h (4 Bft)
26.11.2014 20:38 5,7 C 4,4 C 87 % 1012,4 hPa 0,0 l/m 0 min 0 min 0 W/m 27,2 km/h (4 Bft)
26.11.2014 20:40 5,8 C 4,4 C 87 % 1012,4 hPa 0,0 l/m 0 min 0 min 0 W/m 25,1 km/h (4 Bft)
26.11.2014 20:42 5,8 C 4,4 C 87 % 1012,4 hPa 0,0 l/m 0 min 0 min 0 W/m 27,2 km/h (4 Bft)
26.11.2014 20:44 5,8 C 4,4 C 87 % 1012,3 hPa 0,0 l/m 0 min 0 min 0 W/m 25,1 km/h (4 Bft)
26.11.2014 20:46 5,8 C 4,4 C 87 % 1012,4 hPa 0,0 l/m 0 min 0 min 0 W/m 33,5 km/h (5 Bft)
26.11.2014 20:48 5,8 C 4,4 C 87 % 1012,3 hPa 0,0 l/m 0 min 0 min 0 W/m 31,4 km/h (5 Bft)
26.11.2014 20:50 5,8 C 4,4 C 87 % 1012,3 hPa 0,0 l/m 0 min 0 min 0 W/m 25,1 km/h (4 Bft)
26.11.2014 20:52 5,8 C 4,4 C 87 % 1012,3 hPa 0,0 l/m 0 min 0 min 0 W/m 29,3 km/h (5 Bft)
26.11.2014 20:54 5,8 C 4,4 C 87 % 1012,3 hPa 0,0 l/m 0 min 0 min 0 W/m 25,1 km/h (4 Bft)
26.11.2014 20:56 5,8 C 4,4 C 87 % 1012,3 hPa 0,0 l/m 0 min 0 min 0 W/m 29,3 km/h (5 Bft)
26.11.2014 20:58 5,8 C 4,4 C 87 % 1012,3 hPa 0,0 l/m 0 min 0 min 0 W/m 35,6 km/h (5 Bft)
26.11.2014 21:00 5,8 C 5,0 C 87 % 1012,3 hPa 0,0 l/m 0 min 0 min 0 W/m 31,4 km/h (5 Bft)
26.11.2014 21:02 5,8 C 5,0 C 87 % 1012,3 hPa 0,0 l/m 0 min 0 min 0 W/m 27,2 km/h (4 Bft)
26.11.2014 21:04 5,8 C 4,4 C 87 % 1012,3 hPa 0,0 l/m 0 min 0 min 0 W/m 20,9 km/h (4 Bft)
26.11.2014 21:06 5,8 C 4,4 C 87 % 1012,3 hPa 0,0 l/m 0 min 0 min 0 W/m 39,7 km/h (6 Bft)
26.11.2014 21:08 5,8 C 4,4 C 87 % 1012,3 hPa 0,0 l/m 0 min 0 min 0 W/m 29,3 km/h (5 Bft)
26.11.2014 21:10 5,8 C 4,4 C 87 % 1012,3 hPa 0,0 l/m 0 min 0 min 0 W/m 23,0 km/h (4 Bft)
26.11.2014 21:12 5,8 C 4,4 C 88 % 1012,3 hPa 0,0 l/m 0 min 0 min 0 W/m 25,1 km/h (4 Bft)
26.11.2014 21:14 5,8 C 4,4 C 88 % 1012,3 hPa 0,0 l/m 0 min 2 min 0 W/m 31,4 km/h (5 Bft)
26.11.2014 21:16 5,8 C 4,4 C 88 % 1012,3 hPa 0,0 l/m 0 min 2 min 0 W/m 23,0 km/h (4 Bft)
26.11.2014 21:18 5,7 C 4,4 C 88 % 1012,4 hPa 0,0 l/m 0 min 0 min 0 W/m 25,1 km/h (4 Bft)
26.11.2014 21:20 5,7 C 4,4 C 88 % 1012,4 hPa 0,0 l/m 0 min 0 min 0 W/m 23,0 km/h (4 Bft)
26.11.2014 21:22 5,7 C 4,4 C 88 % 1012,4 hPa 0,0 l/m 0 min 2 min 0 W/m 27,2 km/h (4 Bft)
26.11.2014 21:24 5,7 C 4,4 C 88 % 1012,3 hPa 0,0 l/m 0 min 0 min 0 W/m 27,2 km/h (4 Bft)
26.11.2014 21:26 5,7 C 4,4 C 89 % 1012,3 hPa 0,0 l/m 0 min 0 min 0 W/m 31,4 km/h (5 Bft)
26.11.2014 21:28 5,7 C 4,4 C 89 % 1012,3 hPa 0,0 l/m 0 min 0 min 0 W/m 29,3 km/h (5 Bft)
26.11.2014 21:30 5,6 C 4,4 C 89 % 1012,3 hPa 0,0 l/m 0 min 0 min 0 W/m 31,4 km/h (5 Bft)
26.11.2014 21:32 5,6 C 3,9 C 89 % 1012,4 hPa 0,0 l/m 0 min 0 min 0 W/m 23,0 km/h (4 Bft)
26.11.2014 21:34 5,6 C 3,9 C 89 % 1012,3 hPa 0,0 l/m 0 min 0 min 0 W/m 23,0 km/h (4 Bft)
26.11.2014 21:36 5,6 C 3,9 C 89 % 1012,4 hPa 0,0 l/m 0 min 0 min 0 W/m 27,2 km/h (4 Bft)
26.11.2014 21:38 5,6 C 4,4 C 89 % 1012,3 hPa 0,0 l/m 0 min 0 min 0 W/m 41,8 km/h (6 Bft)
26.11.2014 21:40 5,5 C 4,4 C 89 % 1012,4 hPa 0,0 l/m 0 min 0 min 0 W/m 33,5 km/h (5 Bft)
26.11.2014 21:42 5,5 C 4,4 C 90 % 1012,4 hPa 0,0 l/m 0 min 0 min 0 W/m 23,0 km/h (4 Bft)
26.11.2014 21:44 5,5 C 4,4 C 90 % 1012,4 hPa 0,0 l/m 0 min 0 min 0 W/m 27,2 km/h (4 Bft)
26.11.2014 21:46 5,5 C 4,4 C 90 % 1012,4 hPa 0,0 l/m 0 min 0 min 0 W/m 29,3 km/h (5 Bft)
26.11.2014 21:48 5,5 C 4,4 C 90 % 1012,3 hPa 0,0 l/m 0 min 0 min 0 W/m 29,3 km/h (5 Bft)
26.11.2014 21:50 5,5 C 4,4 C 90 % 1012,3 hPa 0,0 l/m 0 min 0 min 0 W/m 25,1 km/h (4 Bft)
26.11.2014 21:52 5,4 C 4,4 C 90 % 1012,3 hPa 0,0 l/m 0 min 0 min 0 W/m 27,2 km/h (4 Bft)
26.11.2014 21:54 5,4 C 4,4 C 90 % 1012,2 hPa 0,0 l/m 0 min 0 min 0 W/m 29,3 km/h (5 Bft)
26.11.2014 21:56 5,4 C 4,4 C 90 % 1012,2 hPa 0,0 l/m 0 min 0 min 0 W/m 35,6 km/h (5 Bft)
26.11.2014 21:58 5,4 C 4,4 C 90 % 1012,2 hPa 0,0 l/m 0 min 0 min 0 W/m 27,2 km/h (4 Bft)
26.11.2014 22:00 5,4 C 4,4 C 90 % 1012,2 hPa 0,0 l/m 0 min 0 min 0 W/m 31,4 km/h (5 Bft)
26.11.2014 22:02 5,4 C 4,4 C 90 % 1012,2 hPa 0,0 l/m 0 min 0 min 0 W/m 25,1 km/h (4 Bft)
26.11.2014 22:04 5,4 C 4,4 C 90 % 1012,2 hPa 0,0 l/m 0 min 0 min 0 W/m 29,3 km/h (5 Bft)
26.11.2014 22:06 5,4 C 4,4 C 90 % 1012,3 hPa 0,0 l/m 0 min 0 min 0 W/m 27,2 km/h (4 Bft)
26.11.2014 22:08 5,4 C 4,4 C 90 % 1012,3 hPa 0,0 l/m 0 min 0 min 0 W/m 23,0 km/h (4 Bft)
26.11.2014 22:10 5,4 C 4,4 C 90 % 1012,3 hPa 0,0 l/m 0 min 0 min 0 W/m 20,9 km/h (4 Bft)
26.11.2014 22:12 5,4 C 4,4 C 90 % 1012,3 hPa 0,0 l/m 0 min 0 min 0 W/m 31,4 km/h (5 Bft)
26.11.2014 22:14 5,4 C 4,4 C 90 % 1012,2 hPa 0,0 l/m 0 min 0 min 0 W/m 33,5 km/h (5 Bft)
26.11.2014 22:16 5,4 C 4,4 C 90 % 1012,2 hPa 0,0 l/m 0 min 0 min 0 W/m 23,0 km/h (4 Bft)
26.11.2014 22:18 5,4 C 4,4 C 90 % 1012,1 hPa 0,0 l/m 0 min 0 min 0 W/m 18,8 km/h (3 Bft)
26.11.2014 22:20 5,4 C 4,4 C 90 % 1012,1 hPa 0,0 l/m 0 min 0 min 0 W/m 25,1 km/h (4 Bft)
26.11.2014 22:22 5,4 C 4,4 C 90 % 1012,1 hPa 0,0 l/m 0 min 0 min 0 W/m 25,1 km/h (4 Bft)
26.11.2014 22:24 5,4 C 4,4 C 90 % 1012,1 hPa 0,0 l/m 0 min 0 min 0 W/m 23,0 km/h (4 Bft)
26.11.2014 22:26 5,4 C 4,4 C 90 % 1012,0 hPa 0,0 l/m 0 min 0 min 0 W/m 23,0 km/h (4 Bft)
26.11.2014 22:28 5,4 C 4,4 C 90 % 1012,0 hPa 0,0 l/m 0 min 0 min 0 W/m 27,2 km/h (4 Bft)
26.11.2014 22:30 5,4 C 4,4 C 90 % 1012,1 hPa 0,0 l/m 0 min 0 min 0 W/m 27,2 km/h (4 Bft)
26.11.2014 22:32 5,4 C 4,4 C 90 % 1012,1 hPa 0,0 l/m 0 min 0 min 0 W/m 35,6 km/h (5 Bft)
26.11.2014 22:34 5,4 C 4,4 C 90 % 1012,0 hPa 0,0 l/m 0 min 0 min 0 W/m 31,4 km/h (5 Bft)
26.11.2014 22:36 5,4 C 4,4 C 90 % 1012,0 hPa 0,0 l/m 0 min 0 min 0 W/m 27,2 km/h (4 Bft)
26.11.2014 22:38 5,4 C 4,4 C 90 % 1012,1 hPa 0,0 l/m 0 min 0 min 0 W/m 23,0 km/h (4 Bft)
26.11.2014 22:40 5,5 C 4,4 C 90 % 1012,1 hPa 0,0 l/m 0 min 0 min 0 W/m 23,0 km/h (4 Bft)
26.11.2014 22:42 5,5 C 4,4 C 90 % 1012,0 hPa 0,0 l/m 0 min 0 min 0 W/m 29,3 km/h (5 Bft)
26.11.2014 22:44 5,5 C 4,4 C 90 % 1012,1 hPa 0,0 l/m 0 min 0 min 0 W/m 27,2 km/h (4 Bft)
26.11.2014 22:46 5,5 C 4,4 C 90 % 1012,0 hPa 0,0 l/m 0 min 0 min 0 W/m 25,1 km/h (4 Bft)
26.11.2014 22:48 5,5 C 4,4 C 90 % 1012,0 hPa 0,0 l/m 0 min 0 min 0 W/m 25,1 km/h (4 Bft)
26.11.2014 22:50 5,6 C 4,4 C 90 % 1011,9 hPa 0,0 l/m 0 min 0 min 0 W/m 25,1 km/h (4 Bft)
26.11.2014 22:52 5,6 C 4,4 C 90 % 1012,0 hPa 0,0 l/m 0 min 0 min 0 W/m 25,1 km/h (4 Bft)
26.11.2014 22:54 5,6 C 4,4 C 90 % 1011,9 hPa 0,0 l/m 0 min 0 min 0 W/m 20,9 km/h (4 Bft)
26.11.2014 22:56 5,6 C 4,4 C 90 % 1011,9 hPa 0,0 l/m 0 min 0 min 0 W/m 39,7 km/h (6 Bft)
26.11.2014 22:58 5,6 C 4,4 C 90 % 1011,9 hPa 0,0 l/m 0 min 0 min 0 W/m 25,1 km/h (4 Bft)
26.11.2014 23:00 5,6 C 4,4 C 90 % 1011,9 hPa 0,0 l/m 0 min 0 min 0 W/m 20,9 km/h (4 Bft)
26.11.2014 23:02 5,6 C 4,4 C 89 % 1011,9 hPa 0,0 l/m 0 min 0 min 0 W/m 23,0 km/h (4 Bft)
26.11.2014 23:04 5,6 C 4,4 C 89 % 1012,0 hPa 0,0 l/m 0 min 0 min 0 W/m 25,1 km/h (4 Bft)
26.11.2014 23:06 5,6 C 4,4 C 89 % 1012,0 hPa 0,0 l/m 0 min 0 min 0 W/m 25,1 km/h (4 Bft)
26.11.2014 23:08 5,6 C 4,4 C 89 % 1012,0 hPa 0,0 l/m 0 min 0 min 0 W/m 37,7 km/h (5 Bft)
26.11.2014 23:10 5,6 C 4,4 C 89 % 1012,0 hPa 0,0 l/m 0 min 0 min 0 W/m 23,0 km/h (4 Bft)
26.11.2014 23:12 5,6 C 4,4 C 89 % 1011,9 hPa 0,0 l/m 0 min 0 min 0 W/m 33,5 km/h (5 Bft)
26.11.2014 23:14 5,7 C 4,4 C 89 % 1011,9 hPa 0,0 l/m 0 min 0 min 0 W/m 31,4 km/h (5 Bft)
26.11.2014 23:16 5,6 C 4,4 C 89 % 1011,9 hPa 0,0 l/m 0 min 0 min 0 W/m 25,1 km/h (4 Bft)
26.11.2014 23:18 5,7 C 4,4 C 89 % 1011,9 hPa 0,0 l/m 0 min 0 min 0 W/m 29,3 km/h (5 Bft)
26.11.2014 23:20 5,7 C 4,4 C 89 % 1012,0 hPa 0,0 l/m 0 min 0 min 0 W/m 23,0 km/h (4 Bft)
26.11.2014 23:22 5,7 C 4,4 C 89 % 1011,9 hPa 0,0 l/m 0 min 0 min 0 W/m 29,3 km/h (5 Bft)
26.11.2014 23:24 5,7 C 4,4 C 89 % 1011,8 hPa 0,0 l/m 0 min 0 min 0 W/m 27,2 km/h (4 Bft)
26.11.2014 23:26 5,7 C 4,4 C 89 % 1011,8 hPa 0,0 l/m 0 min 0 min 0 W/m 27,2 km/h (4 Bft)
26.11.2014 23:28 5,7 C 4,4 C 89 % 1011,8 hPa 0,0 l/m 0 min 0 min 0 W/m 25,1 km/h (4 Bft)
26.11.2014 23:30 5,7 C 4,4 C 89 % 1011,8 hPa 0,0 l/m 0 min 0 min 0 W/m 23,0 km/h (4 Bft)
26.11.2014 23:32 5,7 C 4,4 C 89 % 1011,7 hPa 0,0 l/m 0 min 0 min 0 W/m 20,9 km/h (4 Bft)
26.11.2014 23:34 5,7 C 4,4 C 89 % 1011,8 hPa 0,0 l/m 0 min 0 min 0 W/m 27,2 km/h (4 Bft)
26.11.2014 23:36 5,7 C 4,4 C 89 % 1011,8 hPa 0,0 l/m 0 min 0 min 0 W/m 31,4 km/h (5 Bft)
26.11.2014 23:38 5,7 C 4,4 C 89 % 1011,6 hPa 0,0 l/m 0 min 0 min 0 W/m 25,1 km/h (4 Bft)
26.11.2014 23:40 5,7 C 4,4 C 89 % 1011,7 hPa 0,0 l/m 0 min 0 min 0 W/m 27,2 km/h (4 Bft)
26.11.2014 23:42 5,7 C 4,4 C 89 % 1011,7 hPa 0,0 l/m 0 min 0 min 0 W/m 29,3 km/h (5 Bft)
26.11.2014 23:44 5,7 C 4,4 C 89 % 1011,7 hPa 0,0 l/m 0 min 0 min 0 W/m 29,3 km/h (5 Bft)
26.11.2014 23:46 5,7 C 4,4 C 89 % 1011,7 hPa 0,0 l/m 0 min 0 min 0 W/m 27,2 km/h (4 Bft)
26.11.2014 23:48 5,7 C 4,4 C 89 % 1011,7 hPa 0,0 l/m 0 min 0 min 0 W/m 20,9 km/h (4 Bft)
26.11.2014 23:50 5,7 C 4,4 C 89 % 1011,8 hPa 0,0 l/m 0 min 0 min 0 W/m 25,1 km/h (4 Bft)
26.11.2014 23:52 5,7 C 4,4 C 89 % 1011,7 hPa 0,0 l/m 0 min 2 min 0 W/m 31,4 km/h (5 Bft)
26.11.2014 23:54 5,7 C 4,4 C 89 % 1011,7 hPa 0,0 l/m 0 min 0 min 0 W/m 20,9 km/h (4 Bft)
26.11.2014 23:56 5,6 C 4,4 C 89 % 1011,7 hPa 0,0 l/m 0 min 0 min 0 W/m 23,0 km/h (4 Bft)
26.11.2014 23:58 5,6 C 4,4 C 89 % 1011,7 hPa 0,0 l/m 0 min 0 min 0 W/m 23,0 km/h (4 Bft)
_ Min-Zeit 01:00 00:14 11:46 23:38 - - - - 00:10
Minimum _ 1,9 C 0,6 C 83 % 1011,6 hPa - - - - 4,2 km/h (1 Bft)
_ Max-Zeit 14:56 12:40 01:40 00:00 00:00 14:40 16:00 11:24 09:30
Maximum _ 6,6 C 5,6 C 95 % 1019,7 hPa 0,0 l/m 2 min 2 min 141 W/m 48,1 km/h
O (6 Bft)
Durchschnitt _ 5,1 C 4,0 C 87 % 1015,0 hPa #0,0 l/m #34 min. #16 min. 85 W/m 25,4 km/h (4 Bft)
© 2015 W. Hausmann